Today

Time Wind Dr Wind Spd
mph
Wind Gust
mph
Hum In
%
Humid
%
TempI
F
Temp
F
Raw Bar
in
Tot Rain
in
UV Solar
W/sqm
DailyRain
in
HourRain
in
24HrRain
in
RainRate
in
05/28/20 12:01:32 AM 24 1.0 1.0 42 64 83.9 70.5 29.931 7.90 0.0 0 0.00 0.00 0.00 0.00
05/28/20 12:02:22 AM 24 0.0 1.0 42 64 83.9 70.5 29.930 7.90 0.0 0 0.00 0.00 0.00 0.00
05/28/20 12:03:33 AM 24 0.0 1.0 42 64 83.9 70.4 29.929 7.90 0.0 0 0.00 0.00 0.00 0.00
05/28/20 12:04:19 AM 24 0.0 1.0 42 64 83.9 70.4 29.931 7.90 0.0 0 0.00 0.00 0.00 0.00
05/28/20 12:05:30 AM 24 0.0 1.0 42 64 83.9 70.4 29.930 7.90 0.0 0 0.00 0.00 0.00 0.00
05/28/20 12:06:22 AM 24 0.0 1.0 42 64 83.8 70.3 29.930 7.90 0.0 0 0.00 0.00 0.00 0.00
05/28/20 12:07:33 AM 24 0.0 1.0 42 64 83.8 70.3 29.931 7.90 0.0 0 0.00 0.00 0.00 0.00
05/28/20 12:08:22 AM 24 0.0 1.0 42 64 83.9 70.3 29.929 7.90 0.0 0 0.00 0.00 0.00 0.00
05/28/20 12:09:29 AM 24 1.0 1.0 42 64 83.8 70.2 29.930 7.90 0.0 0 0.00 0.00 0.00 0.00
05/28/20 12:10:19 AM 24 1.0 2.0 42 64 83.9 70.2 29.930 7.90 0.0 0 0.00 0.00 0.00 0.00
05/28/20 12:11:29 AM 24 1.0 2.0 42 64 83.8 70.2 29.929 7.90 0.0 0 0.00 0.00 0.00 0.00
05/28/20 12:12:19 AM 24 0.0 2.0 42 65 83.8 70.1 29.929 7.90 0.0 0 0.00 0.00 0.00 0.00
05/28/20 12:13:31 AM 24 0.0 2.0 42 65 83.8 70.1 29.928 7.90 0.0 0 0.00 0.00 0.00 0.00
05/28/20 12:14:22 AM 24 0.0 2.0 42 65 83.8 70.1 29.930 7.90 0.0 0 0.00 0.00 0.00 0.00
05/28/20 12:15:34 AM 24 0.0 2.0 42 65 83.8 70.0 29.928 7.90 0.0 0 0.00 0.00 0.00 0.00
05/28/20 12:16:24 AM 24 0.0 2.0 42 65 83.8 70.0 29.928 7.90 0.0 0 0.00 0.00 0.00 0.00
05/28/20 12:17:33 AM 24 0.0 2.0 42 65 83.8 69.9 29.929 7.90 0.0 0 0.00 0.00 0.00 0.00
05/28/20 12:18:24 AM 24 0.0 2.0 42 65 83.8 69.9 29.929 7.90 0.0 0 0.00 0.00 0.00 0.00
05/28/20 12:19:33 AM 24 0.0 2.0 42 65 83.8 69.8 29.927 7.90 0.0 0 0.00 0.00 0.00 0.00
05/28/20 12:20:21 AM 24 0.0 2.0 42 65 83.8 69.8 29.926 7.90 0.0 0 0.00 0.00 0.00 0.00
05/28/20 12:21:30 AM 24 0.0 2.0 42 65 83.7 69.7 29.927 7.90 0.0 0 0.00 0.00 0.00 0.00
05/28/20 12:22:20 AM 24 1.0 2.0 42 65 83.7 69.7 29.927 7.90 0.0 0 0.00 0.00 0.00 0.00
05/28/20 12:23:30 AM 24 0.0 2.0 42 65 83.7 69.7 29.927 7.90 0.0 0 0.00 0.00 0.00 0.00
05/28/20 12:24:20 AM 24 1.0 2.0 42 65 83.7 69.6 29.927 7.90 0.0 0 0.00 0.00 0.00 0.00
05/28/20 12:25:29 AM 24 1.0 2.0 42 65 83.7 69.5 29.928 7.90 0.0 0 0.00 0.00 0.00 0.00
05/28/20 12:26:20 AM 24 2.0 2.0 42 66 83.7 69.5 29.927 7.90 0.0 0 0.00 0.00 0.00 0.00
05/28/20 12:27:32 AM 24 1.0 2.0 42 66 83.7 69.4 29.924 7.90 0.0 0 0.00 0.00 0.00 0.00
05/28/20 12:28:23 AM 24 0.0 2.0 42 66 83.7 69.4 29.927 7.90 0.0 0 0.00 0.00 0.00 0.00
05/28/20 12:29:35 AM 24 0.0 2.0 42 66 83.7 69.3 29.926 7.90 0.0 0 0.00 0.00 0.00 0.00
05/28/20 12:30:26 AM 24 0.0 2.0 42 66 83.7 69.3 29.927 7.90 0.0 0 0.00 0.00 0.00 0.00
05/28/20 12:31:35 AM 24 0.0 2.0 42 66 83.7 69.2 29.926 7.90 0.0 0 0.00 0.00 0.00 0.00
05/28/20 12:32:25 AM 24 0.0 2.0 42 66 83.7 69.2 29.926 7.90 0.0 0 0.00 0.00 0.00 0.00
05/28/20 12:33:16 AM 24 0.0 2.0 42 66 83.7 69.2 29.923 7.90 0.0 0 0.00 0.00 0.00 0.00
05/28/20 12:34:28 AM 24 0.0 2.0 42 66 83.7 69.1 29.926 7.90 0.0 0 0.00 0.00 0.00 0.00
05/28/20 12:35:19 AM 24 0.0 2.0 42 66 83.6 69.1 29.924 7.90 0.0 0 0.00 0.00 0.00 0.00
05/28/20 12:36:25 AM 24 0.0 2.0 42 66 83.6 69.0 29.923 7.90 0.0 0 0.00 0.00 0.00 0.00
05/28/20 12:37:16 AM 24 0.0 2.0 42 66 83.6 69.0 29.924 7.90 0.0 0 0.00 0.00 0.00 0.00
05/28/20 12:38:28 AM 24 0.0 2.0 42 66 83.6 68.9 29.922 7.90 0.0 0 0.00 0.00 0.00 0.00
05/28/20 12:39:19 AM 24 0.0 2.0 42 66 83.6 68.9 29.922 7.90 0.0 0 0.00 0.00 0.00 0.00
05/28/20 12:40:31 AM 24 0.0 2.0 42 66 83.6 68.9 29.923 7.90 0.0 0 0.00 0.00 0.00 0.00
05/28/20 12:41:19 AM 24 0.0 2.0 42 66 83.6 68.8 29.920 7.90 0.0 0 0.00 0.00 0.00 0.00
05/28/20 12:42:31 AM 24 0.0 2.0 42 67 83.6 68.8 29.924 7.90 0.0 0 0.00 0.00 0.00 0.00
05/28/20 12:43:22 AM 24 0.0 2.0 42 67 83.6 68.8 29.921 7.90 0.0 0 0.00 0.00 0.00 0.00
05/28/20 12:44:31 AM 24 0.0 2.0 42 67 83.6 68.7 29.921 7.90 0.0 0 0.00 0.00 0.00 0.00
05/28/20 12:45:24 AM 24 0.0 2.0 42 67 83.6 68.7 29.922 7.90 0.0 0 0.00 0.00 0.00 0.00
05/28/20 12:46:30 AM 24 0.0 2.0 42 67 83.6 68.6 29.921 7.90 0.0 0 0.00 0.00 0.00 0.00
05/28/20 12:47:24 AM 24 0.0 2.0 42 67 83.6 68.6 29.921 7.90 0.0 0 0.00 0.00 0.00 0.00
05/28/20 12:48:33 AM 24 0.0 2.0 42 67 83.5 68.5 29.924 7.90 0.0 0 0.00 0.00 0.00 0.00
05/28/20 12:49:27 AM 24 0.0 2.0 42 67 83.5 68.5 29.921 7.90 0.0 0 0.00 0.00 0.00 0.00
05/28/20 12:50:18 AM 24 0.0 2.0 42 67 83.5 68.4 29.921 7.90 0.0 0 0.00 0.00 0.00 0.00
05/28/20 12:51:24 AM 24 0.0 2.0 42 67 83.5 68.4 29.921 7.90 0.0 0 0.00 0.00 0.00 0.00
05/28/20 12:52:18 AM 24 0.0 2.0 42 67 83.5 68.3 29.922 7.90 0.0 0 0.00 0.00 0.00 0.00
05/28/20 12:53:30 AM 24 0.0 2.0 42 68 83.5 68.3 29.922 7.90 0.0 0 0.00 0.00 0.00 0.00
05/28/20 12:54:20 AM 24 0.0 2.0 42 68 83.5 68.2 29.923 7.90 0.0 0 0.00 0.00 0.00 0.00
05/28/20 12:55:32 AM 24 0.0 2.0 42 68 83.5 68.1 29.924 7.90 0.0 0 0.00 0.00 0.00 0.00
05/28/20 12:56:23 AM 24 0.0 2.0 42 68 83.5 68.1 29.922 7.90 0.0 0 0.00 0.00 0.00 0.00
05/28/20 12:57:29 AM 24 0.0 2.0 42 68 83.4 68.1 29.924 7.90 0.0 0 0.00 0.00 0.00 0.00
05/28/20 12:58:20 AM 24 0.0 2.0 42 68 83.5 68.1 29.924 7.90 0.0 0 0.00 0.00 0.00 0.00
05/28/20 12:59:32 AM 24 0.0 2.0 42 68 83.5 68.0 29.922 7.90 0.0 0 0.00 0.00 0.00 0.00
05/28/20 1:00:26 AM 24 0.0 2.0 42 68 83.4 68.0 29.926 7.90 0.0 0 0.00 0.00 0.00 0.00
05/28/20 1:01:17 AM 24 1.0 2.0 42 68 83.4 68.0 29.927 7.90 0.0 0 0.00 0.00 0.00 0.00
05/28/20 1:02:26 AM 24 0.0 2.0 42 68 83.4 67.9 29.927 7.90 0.0 0 0.00 0.00 0.00 0.00
05/28/20 1:03:20 AM 24 0.0 2.0 42 68 83.4 67.9 29.927 7.90 0.0 0 0.00 0.00 0.00 0.00
05/28/20 1:04:32 AM 24 0.0 2.0 42 68 83.3 67.9 29.926 7.90 0.0 0 0.00 0.00 0.00 0.00
05/28/20 1:05:22 AM 24 0.0 2.0 42 68 83.4 67.8 29.926 7.90 0.0 0 0.00 0.00 0.00 0.00
05/28/20 1:06:34 AM 24 0.0 2.0 42 68 83.4 67.8 29.927 7.90 0.0 0 0.00 0.00 0.00 0.00
05/28/20 1:07:22 AM 24 0.0 2.0 42 68 83.4 67.8 29.926 7.90 0.0 0 0.00 0.00 0.00 0.00
05/28/20 1:08:34 AM 24 0.0 2.0 42 69 83.4 67.7 29.923 7.90 0.0 0 0.00 0.00 0.00 0.00
05/28/20 1:09:25 AM 24 0.0 2.0 42 69 83.3 67.7 29.926 7.90 0.0 0 0.00 0.00 0.00 0.00
05/28/20 1:10:16 AM 24 0.0 2.0 42 69 83.3 67.7 29.924 7.90 0.0 0 0.00 0.00 0.00 0.00
05/28/20 1:11:28 AM 24 0.0 2.0 42 69 83.3 67.7 29.926 7.90 0.0 0 0.00 0.00 0.00 0.00
05/28/20 1:12:21 AM 24 0.0 2.0 42 69 83.3 67.7 29.926 7.90 0.0 0 0.00 0.00 0.00 0.00
05/28/20 1:13:28 AM 24 0.0 2.0 42 69 83.3 67.7 29.924 7.90 0.0 0 0.00 0.00 0.00 0.00
05/28/20 1:14:18 AM 24 0.0 2.0 42 69 83.3 67.6 29.924 7.90 0.0 0 0.00 0.00 0.00 0.00
05/28/20 1:15:31 AM 24 0.0 2.0 42 69 83.3 67.6 29.923 7.90 0.0 0 0.00 0.00 0.00 0.00
05/28/20 1:16:21 AM 24 0.0 2.0 42 69 83.3 67.6 29.926 7.90 0.0 0 0.00 0.00 0.00 0.00
05/28/20 1:17:33 AM 24 0.0 2.0 42 69 83.2 67.6 29.926 7.90 0.0 0 0.00 0.00 0.00 0.00
05/28/20 1:18:21 AM 24 0.0 2.0 42 69 83.2 67.5 29.926 7.90 0.0 0 0.00 0.00 0.00 0.00
05/28/20 1:19:30 AM 24 0.0 2.0 42 69 83.2 67.5 29.923 7.90 0.0 0 0.00 0.00 0.00 0.00
05/28/20 1:20:21 AM 24 1.0 2.0 42 69 83.2 67.4 29.923 7.90 0.0 0 0.00 0.00 0.00 0.00
05/28/20 1:21:30 AM 24 1.0 2.0 42 69 83.2 67.4 29.921 7.90 0.0 0 0.00 0.00 0.00 0.00
05/28/20 1:22:21 AM 24 1.0 2.0 42 69 83.2 67.3 29.922 7.90 0.0 0 0.00 0.00 0.00 0.00
05/28/20 1:23:27 AM 24 0.0 2.0 42 69 83.2 67.3 29.921 7.90 0.0 0 0.00 0.00 0.00 0.00
05/28/20 1:24:21 AM 24 1.0 2.0 42 69 83.2 67.2 29.921 7.90 0.0 0 0.00 0.00 0.00 0.00
05/28/20 1:25:33 AM 24 1.0 2.0 42 69 83.2 67.2 29.923 7.90 0.0 0 0.00 0.00 0.00 0.00
05/28/20 1:26:24 AM 24 2.0 2.0 42 69 83.2 67.1 29.923 7.90 0.0 0 0.00 0.00 0.00 0.00
05/28/20 1:27:18 AM 24 0.0 2.0 42 69 83.2 67.0 29.922 7.90 0.0 0 0.00 0.00 0.00 0.00
05/28/20 1:28:24 AM 24 0.0 2.0 42 69 83.1 67.0 29.923 7.90 0.0 0 0.00 0.00 0.00 0.00
05/28/20 1:29:18 AM 24 1.0 2.0 42 69 83.2 66.9 29.921 7.90 0.0 0 0.00 0.00 0.00 0.00
05/28/20 1:30:30 AM 24 0.0 2.0 42 69 83.2 66.9 29.922 7.90 0.0 0 0.00 0.00 0.00 0.00
05/28/20 1:31:20 AM 24 0.0 2.0 42 70 83.1 66.8 29.919 7.90 0.0 0 0.00 0.00 0.00 0.00
05/28/20 1:32:29 AM 24 0.0 2.0 42 70 83.1 66.8 29.919 7.90 0.0 0 0.00 0.00 0.00 0.00
05/28/20 1:33:23 AM 24 1.0 2.0 42 70 83.2 66.7 29.921 7.90 0.0 0 0.00 0.00 0.00 0.00
05/28/20 1:34:29 AM 24 0.0 2.0 42 70 83.1 66.7 29.919 7.90 0.0 0 0.00 0.00 0.00 0.00
05/28/20 1:35:17 AM 24 0.0 2.0 42 70 83.1 66.6 29.918 7.90 0.0 0 0.00 0.00 0.00 0.00
05/28/20 1:36:29 AM 24 0.0 2.0 42 70 83.1 66.6 29.920 7.90 0.0 0 0.00 0.00 0.00 0.00
05/28/20 1:37:17 AM 24 0.0 2.0 42 70 83.1 66.5 29.919 7.90 0.0 0 0.00 0.00 0.00 0.00
05/28/20 1:38:29 AM 24 0.0 2.0 42 70 83.0 66.4 29.919 7.90 0.0 0 0.00 0.00 0.00 0.00
05/28/20 1:39:20 AM 24 0.0 2.0 42 70 83.0 66.4 29.918 7.90 0.0 0 0.00 0.00 0.00 0.00
05/28/20 1:40:29 AM 24 0.0 2.0 42 70 83.0 66.3 29.919 7.90 0.0 0 0.00 0.00 0.00 0.00
05/28/20 1:41:20 AM 24 1.0 2.0 42 71 83.0 66.3 29.917 7.90 0.0 0 0.00 0.00 0.00 0.00
05/28/20 1:42:29 AM 24 0.0 2.0 42 71 83.0 66.2 29.919 7.90 0.0 0 0.00 0.00 0.00 0.00
05/28/20 1:43:23 AM 24 1.0 2.0 42 71 83.0 66.2 29.917 7.90 0.0 0 0.00 0.00 0.00 0.00
05/28/20 1:44:29 AM 24 2.0 3.0 42 71 83.0 66.2 29.920 7.90 0.0 0 0.00 0.00 0.00 0.00
05/28/20 1:45:23 AM 24 1.0 3.0 42 71 83.0 66.1 29.919 7.90 0.0 0 0.00 0.00 0.00 0.00
05/28/20 1:46:32 AM 24 1.0 3.0 42 71 83.0 66.0 29.919 7.90 0.0 0 0.00 0.00 0.00 0.00
05/28/20 1:47:23 AM 24 1.0 3.0 42 71 83.0 66.0 29.916 7.90 0.0 0 0.00 0.00 0.00 0.00
05/28/20 1:48:35 AM 24 2.0 3.0 42 72 82.9 65.9 29.917 7.90 0.0 0 0.00 0.00 0.00 0.00
05/28/20 1:49:23 AM 24 1.0 3.0 42 72 83.0 65.9 29.916 7.90 0.0 0 0.00 0.00 0.00 0.00
05/28/20 1:50:35 AM 24 2.0 3.0 42 72 82.9 65.8 29.916 7.90 0.0 0 0.00 0.00 0.00 0.00
05/28/20 1:51:26 AM 24 0.0 3.0 42 72 82.9 65.8 29.917 7.90 0.0 0 0.00 0.00 0.00 0.00
05/28/20 1:52:16 AM 24 1.0 3.0 42 72 82.9 65.7 29.919 7.90 0.0 0 0.00 0.00 0.00 0.00
05/28/20 1:53:29 AM 24 0.0 3.0 42 72 82.9 65.7 29.917 7.90 0.0 0 0.00 0.00 0.00 0.00
05/28/20 1:54:19 AM 24 0.0 3.0 42 72 82.9 65.7 29.917 7.90 0.0 0 0.00 0.00 0.00 0.00
05/28/20 1:55:26 AM 24 1.0 3.0 42 72 82.9 65.6 29.917 7.90 0.0 0 0.00 0.00 0.00 0.00
05/28/20 1:56:16 AM 24 0.0 3.0 42 72 82.9 65.6 29.915 7.90 0.0 0 0.00 0.00 0.00 0.00
05/28/20 1:57:28 AM 24 0.0 3.0 42 72 82.8 65.6 29.918 7.90 0.0 0 0.00 0.00 0.00 0.00
05/28/20 1:58:16 AM 24 1.0 3.0 42 72 82.8 65.5 29.916 7.90 0.0 0 0.00 0.00 0.00 0.00
05/28/20 1:59:29 AM 24 1.0 3.0 42 72 82.8 65.5 29.916 7.90 0.0 0 0.00 0.00 0.00 0.00
05/28/20 2:00:38 AM 24 1.0 3.0 42 72 82.8 65.5 29.918 7.90 0.0 0 0.00 0.00 0.00 0.00
05/28/20 2:01:25 AM 24 1.0 3.0 42 72 82.8 65.4 29.916 7.90 0.0 0 0.00 0.00 0.00 0.00
05/28/20 2:02:16 AM 24 1.0 3.0 42 72 82.8 65.3 29.918 7.90 0.0 0 0.00 0.00 0.00 0.00
05/28/20 2:03:29 AM 24 1.0 3.0 42 72 82.8 65.3 29.915 7.90 0.0 0 0.00 0.00 0.00 0.00
05/28/20 2:04:19 AM 24 2.0 3.0 42 73 82.8 65.2 29.916 7.90 0.0 0 0.00 0.00 0.00 0.00
05/28/20 2:05:26 AM 24 1.0 3.0 42 73 82.8 65.2 29.916 7.90 0.0 0 0.00 0.00 0.00 0.00
05/28/20 2:06:35 AM 24 2.0 3.0 42 73 82.8 65.1 29.916 7.90 0.0 0 0.00 0.00 0.00 0.00
05/28/20 2:07:26 AM 24 1.0 3.0 42 73 82.7 65.0 29.917 7.90 0.0 0 0.00 0.00 0.00 0.00
05/28/20 2:08:35 AM 24 2.0 3.0 42 73 82.7 65.0 29.917 7.90 0.0 0 0.00 0.00 0.00 0.00
05/28/20 2:09:25 AM 24 1.0 3.0 42 73 82.7 64.9 29.916 7.90 0.0 0 0.00 0.00 0.00 0.00
05/28/20 2:10:32 AM 24 2.0 3.0 42 73 82.7 64.9 29.916 7.90 0.0 0 0.00 0.00 0.00 0.00
05/28/20 2:11:22 AM 24 2.0 3.0 42 74 82.7 64.8 29.917 7.90 0.0 0 0.00 0.00 0.00 0.00
05/28/20 2:12:31 AM 24 1.0 3.0 42 74 82.7 64.8 29.914 7.90 0.0 0 0.00 0.00 0.00 0.00
05/28/20 2:13:22 AM 24 1.0 3.0 42 74 82.7 64.7 29.913 7.90 0.0 0 0.00 0.00 0.00 0.00
05/28/20 2:14:32 AM 24 1.0 3.0 42 74 82.7 64.7 29.914 7.90 0.0 0 0.00 0.00 0.00 0.00
05/28/20 2:15:20 AM 24 2.0 3.0 42 74 82.7 64.7 29.913 7.90 0.0 0 0.00 0.00 0.00 0.00
05/28/20 2:16:29 AM 24 1.0 3.0 42 74 82.7 64.6 29.914 7.90 0.0 0 0.00 0.00 0.00 0.00
05/28/20 2:17:20 AM 24 0.0 3.0 42 74 82.7 64.6 29.914 7.90 0.0 0 0.00 0.00 0.00 0.00
05/28/20 2:18:29 AM 24 2.0 3.0 42 74 82.6 64.5 29.912 7.90 0.0 0 0.00 0.00 0.00 0.00
05/28/20 2:19:20 AM 24 1.0 3.0 42 74 82.6 64.5 29.914 7.90 0.0 0 0.00 0.00 0.00 0.00
05/28/20 2:20:26 AM 24 0.0 3.0 42 75 82.6 64.5 29.912 7.90 0.0 0 0.00 0.00 0.00 0.00
05/28/20 2:21:35 AM 24 0.0 3.0 42 75 82.6 64.4 29.912 7.90 0.0 0 0.00 0.00 0.00 0.00
05/28/20 2:22:26 AM 24 0.0 3.0 42 75 82.6 64.4 29.910 7.90 0.0 0 0.00 0.00 0.00 0.00
05/28/20 2:23:17 AM 24 1.0 3.0 42 75 82.6 64.4 29.911 7.90 0.0 0 0.00 0.00 0.00 0.00
05/28/20 2:24:26 AM 24 0.0 3.0 42 75 82.5 64.3 29.911 7.90 0.0 0 0.00 0.00 0.00 0.00
05/28/20 2:25:17 AM 24 0.0 3.0 42 75 82.5 64.3 29.912 7.90 0.0 0 0.00 0.00 0.00 0.00
05/28/20 2:26:23 AM 24 0.0 3.0 42 75 82.5 64.3 29.911 7.90 0.0 0 0.00 0.00 0.00 0.00
05/28/20 2:27:36 AM 24 1.0 3.0 42 75 82.5 64.3 29.913 7.90 0.0 0 0.00 0.00 0.00 0.00
05/28/20 2:28:23 AM 24 1.0 3.0 42 75 82.5 64.2 29.911 7.90 0.0 0 0.00 0.00 0.00 0.00
05/28/20 2:29:36 AM 24 1.0 3.0 42 75 82.5 64.2 29.910 7.90 0.0 0 0.00 0.00 0.00 0.00
05/28/20 2:30:26 AM 24 0.0 3.0 42 75 82.5 64.2 29.909 7.90 0.0 0 0.00 0.00 0.00 0.00
05/28/20 2:31:33 AM 24 0.0 3.0 42 75 82.5 64.1 29.910 7.90 0.0 0 0.00 0.00 0.00 0.00
05/28/20 2:32:21 AM 24 0.0 3.0 42 75 82.5 64.1 29.909 7.90 0.0 0 0.00 0.00 0.00 0.00
05/28/20 2:33:30 AM 24 1.0 3.0 42 75 82.4 64.0 29.907 7.90 0.0 0 0.00 0.00 0.00 0.00
05/28/20 2:34:21 AM 24 1.0 3.0 42 75 82.4 64.0 29.909 7.90 0.0 0 0.00 0.00 0.00 0.00
05/28/20 2:35:30 AM 24 1.0 3.0 42 76 82.4 64.0 29.909 7.90 0.0 0 0.00 0.00 0.00 0.00
05/28/20 2:36:17 AM 24 0.0 3.0 42 76 82.4 64.0 29.908 7.90 0.0 0 0.00 0.00 0.00 0.00
05/28/20 2:37:27 AM 24 1.0 3.0 42 76 82.4 63.9 29.908 7.90 0.0 0 0.00 0.00 0.00 0.00
05/28/20 2:38:17 AM 24 0.0 3.0 42 76 82.4 63.9 29.908 7.90 0.0 0 0.00 0.00 0.00 0.00
05/28/20 2:39:30 AM 24 1.0 3.0 42 76 82.4 63.9 29.910 7.90 0.0 0 0.00 0.00 0.00 0.00
05/28/20 2:40:21 AM 24 1.0 3.0 42 76 82.4 63.8 29.909 7.90 0.0 0 0.00 0.00 0.00 0.00
05/28/20 2:41:27 AM 24 0.0 3.0 42 76 82.4 63.8 29.911 7.90 0.0 0 0.00 0.00 0.00 0.00
05/28/20 2:42:18 AM 24 1.0 3.0 42 76 82.3 63.8 29.910 7.90 0.0 0 0.00 0.00 0.00 0.00
05/28/20 2:43:30 AM 24 1.0 3.0 42 76 82.3 63.7 29.909 7.90 0.0 0 0.00 0.00 0.00 0.00
05/28/20 2:44:21 AM 24 1.0 3.0 42 76 82.4 63.7 29.910 7.90 0.0 0 0.00 0.00 0.00 0.00
05/28/20 2:45:33 AM 24 1.0 3.0 42 76 82.3 63.6 29.908 7.90 0.0 0 0.00 0.00 0.00 0.00
05/28/20 2:46:21 AM 24 0.0 3.0 42 76 82.4 63.6 29.909 7.90 0.0 0 0.00 0.00 0.00 0.00
05/28/20 2:47:33 AM 24 1.0 3.0 42 77 82.3 63.6 29.909 7.90 0.0 0 0.00 0.00 0.00 0.00
05/28/20 2:48:24 AM 24 0.0 3.0 42 77 82.3 63.6 29.911 7.90 0.0 0 0.00 0.00 0.00 0.00
05/28/20 2:49:18 AM 24 0.0 3.0 42 77 82.3 63.5 29.908 7.90 0.0 0 0.00 0.00 0.00 0.00
05/28/20 2:50:28 AM 24 0.0 3.0 42 77 82.3 63.5 29.908 7.90 0.0 0 0.00 0.00 0.00 0.00
05/28/20 2:51:22 AM 24 1.0 3.0 42 77 82.3 63.5 29.909 7.90 0.0 0 0.00 0.00 0.00 0.00
05/28/20 2:52:28 AM 24 2.0 3.0 42 77 82.3 63.4 29.908 7.90 0.0 0 0.00 0.00 0.00 0.00
05/28/20 2:53:19 AM 24 1.0 3.0 42 77 82.2 63.4 29.909 7.90 0.0 0 0.00 0.00 0.00 0.00
05/28/20 2:54:31 AM 24 2.0 3.0 42 77 82.3 63.4 29.910 7.90 0.0 0 0.00 0.00 0.00 0.00
05/28/20 2:55:22 AM 24 2.0 3.0 42 77 82.3 63.4 29.910 7.90 0.0 0 0.00 0.00 0.00 0.00
05/28/20 2:56:34 AM 24 0.0 3.0 42 77 82.2 63.4 29.906 7.90 0.0 0 0.00 0.00 0.00 0.00
05/28/20 2:57:22 AM 24 0.0 3.0 42 77 82.2 63.3 29.908 7.90 0.0 0 0.00 0.00 0.00 0.00
05/28/20 2:58:31 AM 24 0.0 3.0 42 77 82.2 63.3 29.907 7.90 0.0 0 0.00 0.00 0.00 0.00
05/28/20 2:59:22 AM 24 0.0 3.0 42 77 82.2 63.3 29.907 7.90 0.0 0 0.00 0.00 0.00 0.00
05/28/20 3:00:35 AM 24 0.0 3.0 42 77 82.1 63.2 29.905 7.90 0.0 0 0.00 0.00 0.00 0.00
05/28/20 3:01:26 AM 24 0.0 3.0 42 77 82.2 63.2 29.905 7.90 0.0 0 0.00 0.00 0.00 0.00
05/28/20 3:02:32 AM 24 0.0 3.0 42 77 82.2 63.2 29.905 7.90 0.0 0 0.00 0.00 0.00 0.00
05/28/20 3:03:23 AM 24 0.0 3.0 42 77 82.1 63.2 29.907 7.90 0.0 0 0.00 0.00 0.00 0.00
05/28/20 3:04:35 AM 24 0.0 3.0 42 77 82.1 63.2 29.906 7.90 0.0 0 0.00 0.00 0.00 0.00
05/28/20 3:05:26 AM 24 1.0 3.0 42 77 82.1 63.2 29.904 7.90 0.0 0 0.00 0.00 0.00 0.00
05/28/20 3:06:17 AM 24 0.0 3.0 42 77 82.1 63.1 29.905 7.90 0.0 0 0.00 0.00 0.00 0.00
05/28/20 3:07:26 AM 24 0.0 3.0 42 78 82.1 63.1 29.903 7.90 0.0 0 0.00 0.00 0.00 0.00
05/28/20 3:08:17 AM 24 1.0 3.0 42 78 82.1 63.1 29.904 7.90 0.0 0 0.00 0.00 0.00 0.00
05/28/20 3:09:30 AM 24 0.0 3.0 43 78 82.1 63.1 29.904 7.90 0.0 0 0.00 0.00 0.00 0.00
05/28/20 3:10:21 AM 24 0.0 3.0 43 78 82.0 63.1 29.903 7.90 0.0 0 0.00 0.00 0.00 0.00
05/28/20 3:11:33 AM 24 0.0 3.0 43 78 82.1 63.0 29.903 7.90 0.0 0 0.00 0.00 0.00 0.00
05/28/20 3:12:24 AM 24 0.0 3.0 43 78 82.1 63.0 29.903 7.90 0.0 0 0.00 0.00 0.00 0.00
05/28/20 3:13:30 AM 24 0.0 3.0 43 78 82.1 63.0 29.902 7.90 0.0 0 0.00 0.00 0.00 0.00
05/28/20 3:14:21 AM 24 0.0 3.0 43 78 82.0 63.0 29.899 7.90 0.0 0 0.00 0.00 0.00 0.00
05/28/20 3:15:34 AM 24 0.0 3.0 43 78 82.0 62.9 29.902 7.90 0.0 0 0.00 0.00 0.00 0.00
05/28/20 3:16:25 AM 24 1.0 3.0 43 78 82.0 62.9 29.902 7.90 0.0 0 0.00 0.00 0.00 0.00
05/28/20 3:17:16 AM 24 1.0 3.0 43 78 82.1 62.9 29.903 7.90 0.0 0 0.00 0.00 0.00 0.00
05/28/20 3:18:25 AM 24 1.0 3.0 43 78 82.0 62.9 29.900 7.90 0.0 0 0.00 0.00 0.00 0.00
05/28/20 3:19:16 AM 24 0.0 3.0 43 78 82.1 62.9 29.899 7.90 0.0 0 0.00 0.00 0.00 0.00
05/28/20 3:20:28 AM 24 0.0 3.0 43 78 82.0 62.8 29.897 7.90 0.0 0 0.00 0.00 0.00 0.00
05/28/20 3:21:19 AM 24 1.0 3.0 43 78 82.0 62.8 29.898 7.90 0.0 0 0.00 0.00 0.00 0.00
05/28/20 3:22:31 AM 24 1.0 3.0 43 79 82.1 62.8 29.898 7.90 0.0 0 0.00 0.00 0.00 0.00
05/28/20 3:23:19 AM 24 0.0 3.0 43 79 82.0 62.8 29.898 7.90 0.0 0 0.00 0.00 0.00 0.00
05/28/20 3:24:31 AM 24 1.0 3.0 43 79 82.0 62.7 29.898 7.90 0.0 0 0.00 0.00 0.00 0.00
05/28/20 3:25:23 AM 24 0.0 3.0 43 79 81.9 62.7 29.898 7.90 0.0 0 0.00 0.00 0.00 0.00
05/28/20 3:26:32 AM 24 0.0 3.0 43 79 82.0 62.7 29.898 7.90 0.0 0 0.00 0.00 0.00 0.00
05/28/20 3:27:23 AM 24 1.0 3.0 43 79 81.9 62.7 29.897 7.90 0.0 0 0.00 0.00 0.00 0.00
05/28/20 3:28:32 AM 24 1.0 3.0 43 79 82.0 62.6 29.895 7.90 0.0 0 0.00 0.00 0.00 0.00
05/28/20 3:29:23 AM 24 1.0 3.0 43 79 81.9 62.6 29.896 7.90 0.0 0 0.00 0.00 0.00 0.00
05/28/20 3:30:35 AM 24 1.0 3.0 43 79 81.9 62.6 29.895 7.90 0.0 0 0.00 0.00 0.00 0.00
05/28/20 3:31:26 AM 24 0.0 3.0 43 79 81.9 62.5 29.894 7.90 0.0 0 0.00 0.00 0.00 0.00
05/28/20 3:32:17 AM 24 1.0 3.0 43 79 81.9 62.5 29.895 7.90 0.0 0 0.00 0.00 0.00 0.00
05/28/20 3:33:30 AM 24 0.0 3.0 43 79 81.9 62.5 29.894 7.90 0.0 0 0.00 0.00 0.00 0.00
05/28/20 3:34:21 AM 24 1.0 3.0 43 79 81.9 62.5 29.895 7.90 0.0 0 0.00 0.00 0.00 0.00
05/28/20 3:35:30 AM 24 0.0 3.0 43 79 81.9 62.5 29.896 7.90 0.0 0 0.00 0.00 0.00 0.00
05/28/20 3:36:21 AM 24 0.0 3.0 43 79 81.9 62.4 29.891 7.90 0.0 0 0.00 0.00 0.00 0.00
05/28/20 3:37:33 AM 24 0.0 3.0 43 79 81.9 62.4 29.894 7.90 0.0 0 0.00 0.00 0.00 0.00
05/28/20 3:38:24 AM 24 0.0 3.0 43 79 81.8 62.4 29.895 7.90 0.0 0 0.00 0.00 0.00 0.00
05/28/20 3:39:34 AM 24 1.0 3.0 43 79 81.8 62.3 29.894 7.90 0.0 0 0.00 0.00 0.00 0.00
05/28/20 3:40:25 AM 24 0.0 3.0 43 79 81.8 62.3 29.895 7.90 0.0 0 0.00 0.00 0.00 0.00
05/28/20 3:41:16 AM 24 0.0 3.0 43 79 81.8 62.3 29.894 7.90 0.0 0 0.00 0.00 0.00 0.00
05/28/20 3:42:28 AM 24 1.0 3.0 43 80 81.8 62.3 29.895 7.90 0.0 0 0.00 0.00 0.00 0.00
05/28/20 3:43:19 AM 24 1.0 3.0 43 80 81.7 62.3 29.895 7.90 0.0 0 0.00 0.00 0.00 0.00
05/28/20 3:44:25 AM 24 1.0 3.0 43 80 81.8 62.3 29.895 7.90 0.0 0 0.00 0.00 0.00 0.00
05/28/20 3:45:19 AM 24 1.0 3.0 43 80 81.7 62.2 29.894 7.90 0.0 0 0.00 0.00 0.00 0.00
05/28/20 3:46:32 AM 24 1.0 3.0 43 80 81.7 62.2 29.898 7.90 0.0 0 0.00 0.00 0.00 0.00
05/28/20 3:47:23 AM 24 1.0 3.0 43 80 81.8 62.2 29.897 7.90 0.0 0 0.00 0.00 0.00 0.00
05/28/20 3:48:32 AM 24 1.0 3.0 43 80 81.7 62.2 29.898 7.90 0.0 0 0.00 0.00 0.00 0.00
05/28/20 3:49:23 AM 24 0.0 3.0 43 80 81.7 62.1 29.897 7.90 0.0 0 0.00 0.00 0.00 0.00
05/28/20 3:50:32 AM 24 1.0 3.0 43 80 81.7 62.1 29.898 7.90 0.0 0 0.00 0.00 0.00 0.00
05/28/20 3:51:24 AM 24 1.0 3.0 43 80 81.7 62.1 29.897 7.90 0.0 0 0.00 0.00 0.00 0.00
05/28/20 3:52:33 AM 24 1.0 3.0 43 80 81.7 62.1 29.898 7.90 0.0 0 0.00 0.00 0.00 0.00
05/28/20 3:53:24 AM 24 1.0 3.0 43 80 81.7 62.0 29.898 7.90 0.0 0 0.00 0.00 0.00 0.00
05/28/20 3:54:15 AM 24 1.0 3.0 43 80 81.7 62.0 29.900 7.90 0.0 0 0.00 0.00 0.00 0.00
05/28/20 3:55:24 AM 24 1.0 3.0 43 80 81.7 62.0 29.900 7.90 0.0 0 0.00 0.00 0.00 0.00
05/28/20 3:56:37 AM 24 1.0 3.0 43 80 81.6 61.9 29.899 7.90 0.0 0 0.00 0.00 0.00 0.00
05/28/20 3:57:28 AM 24 0.0 3.0 43 80 81.6 61.9 29.899 7.90 0.0 0 0.00 0.00 0.00 0.00
05/28/20 3:58:19 AM 24 1.0 3.0 43 80 81.6 61.8 29.899 7.90 0.0 0 0.00 0.00 0.00 0.00
05/28/20 3:59:31 AM 24 0.0 3.0 43 80 81.6 61.8 29.899 7.90 0.0 0 0.00 0.00 0.00 0.00
05/28/20 4:00:19 AM 24 0.0 3.0 43 80 81.6 61.8 29.901 7.90 0.0 0 0.00 0.00 0.00 0.00
05/28/20 4:01:28 AM 24 1.0 3.0 43 80 81.6 61.8 29.901 7.90 0.0 0 0.00 0.00 0.00 0.00
05/28/20 4:02:19 AM 24 2.0 3.0 43 80 81.6 61.8 29.899 7.90 0.0 0 0.00 0.00 0.00 0.00
05/28/20 4:03:32 AM 24 0.0 3.0 43 80 81.5 61.7 29.902 7.90 0.0 0 0.00 0.00 0.00 0.00
05/28/20 4:04:23 AM 24 1.0 3.0 43 80 81.5 61.7 29.903 7.90 0.0 0 0.00 0.00 0.00 0.00
05/28/20 4:05:29 AM 24 1.0 3.0 43 80 81.6 61.7 29.901 7.90 0.0 0 0.00 0.00 0.00 0.00
05/28/20 4:06:20 AM 24 1.0 3.0 43 80 81.5 61.6 29.902 7.90 0.0 0 0.00 0.00 0.00 0.00
05/28/20 4:07:33 AM 24 1.0 3.0 43 81 81.5 61.6 29.902 7.90 0.0 0 0.00 0.00 0.00 0.00
05/28/20 4:08:24 AM 24 1.0 3.0 43 81 81.5 61.6 29.901 7.90 0.0 0 0.00 0.00 0.00 0.00
05/28/20 4:09:36 AM 24 2.0 3.0 43 81 81.4 61.6 29.903 7.90 0.0 0 0.00 0.00 0.00 0.00
05/28/20 4:10:27 AM 24 2.0 3.0 43 81 81.5 61.5 29.908 7.90 0.0 0 0.00 0.00 0.00 0.00
05/28/20 4:11:33 AM 24 2.0 3.0 43 81 81.4 61.5 29.900 7.90 0.0 0 0.00 0.00 0.00 0.00
05/28/20 4:12:24 AM 24 3.0 3.0 43 81 81.4 61.4 29.900 7.90 0.0 0 0.00 0.00 0.00 0.00
05/28/20 4:13:15 AM 24 2.0 3.0 43 81 81.4 61.4 29.901 7.90 0.0 0 0.00 0.00 0.00 0.00
05/28/20 4:14:28 AM 24 1.0 3.0 43 81 81.4 61.3 29.902 7.90 0.0 0 0.00 0.00 0.00 0.00
05/28/20 4:15:22 AM 24 2.0 3.0 43 81 81.4 61.3 29.900 7.90 0.0 0 0.00 0.00 0.00 0.00
05/28/20 4:16:28 AM 24 2.0 3.0 43 81 81.4 61.3 29.898 7.90 0.0 0 0.00 0.00 0.00 0.00
05/28/20 4:17:19 AM 24 2.0 3.0 43 81 81.4 61.2 29.901 7.90 0.0 0 0.00 0.00 0.00 0.00
05/28/20 4:18:31 AM 24 1.0 3.0 43 81 81.4 61.2 29.902 7.90 0.0 0 0.00 0.00 0.00 0.00
05/28/20 4:19:23 AM 24 1.0 3.0 43 81 81.4 61.2 29.900 7.90 0.0 0 0.00 0.00 0.00 0.00
05/28/20 4:20:35 AM 24 1.0 3.0 43 81 81.4 61.2 29.901 7.90 0.0 0 0.00 0.00 0.00 0.00
05/28/20 4:21:23 AM 24 0.0 3.0 43 81 81.3 61.2 29.902 7.90 0.0 0 0.00 0.00 0.00 0.00
05/28/20 4:22:32 AM 24 0.0 3.0 43 81 81.4 61.1 29.900 7.90 0.0 0 0.00 0.00 0.00 0.00
05/28/20 4:23:24 AM 24 0.0 3.0 43 82 81.3 61.1 29.901 7.90 0.0 0 0.00 0.00 0.00 0.00
05/28/20 4:24:36 AM 24 0.0 3.0 43 82 81.3 61.1 29.903 7.90 0.0 0 0.00 0.00 0.00 0.00
05/28/20 4:25:27 AM 24 0.0 3.0 43 82 81.3 61.1 29.900 7.90 0.0 0 0.00 0.00 0.00 0.00
05/28/20 4:26:18 AM 24 0.0 3.0 43 82 81.3 61.1 29.901 7.90 0.0 0 0.00 0.00 0.00 0.00
05/28/20 4:27:24 AM 24 0.0 3.0 43 82 81.3 61.1 29.902 7.90 0.0 0 0.00 0.00 0.00 0.00
05/28/20 4:28:15 AM 24 0.0 3.0 43 82 81.3 61.1 29.901 7.90 0.0 0 0.00 0.00 0.00 0.00
05/28/20 4:29:28 AM 24 0.0 3.0 43 82 81.3 61.1 29.903 7.90 0.0 0 0.00 0.00 0.00 0.00
05/28/20 4:30:22 AM 24 1.0 3.0 43 82 81.2 61.1 29.901 7.90 0.0 0 0.00 0.00 0.00 0.00
05/28/20 4:31:34 AM 24 0.0 3.0 43 82 81.3 61.0 29.904 7.90 0.0 0 0.00 0.00 0.00 0.00
05/28/20 4:32:19 AM 24 0.0 3.0 43 82 81.3 61.0 29.902 7.90 0.0 0 0.00 0.00 0.00 0.00
05/28/20 4:33:32 AM 24 1.0 3.0 43 82 81.2 61.0 29.902 7.90 0.0 0 0.00 0.00 0.00 0.00
05/28/20 4:34:23 AM 24 0.0 3.0 43 82 81.2 61.0 29.903 7.90 0.0 0 0.00 0.00 0.00 0.00
05/28/20 4:35:32 AM 24 1.0 3.0 43 82 81.2 61.0 29.903 7.90 0.0 0 0.00 0.00 0.00 0.00
05/28/20 4:36:23 AM 24 1.0 3.0 43 82 81.2 61.0 29.904 7.90 0.0 0 0.00 0.00 0.00 0.00
05/28/20 4:37:29 AM 24 1.0 3.0 43 82 81.2 61.0 29.904 7.90 0.0 0 0.00 0.00 0.00 0.00
05/28/20 4:38:20 AM 24 1.0 3.0 43 82 81.2 61.0 29.905 7.90 0.0 0 0.00 0.00 0.00 0.00
05/28/20 4:39:30 AM 24 0.0 3.0 43 83 81.2 61.0 29.902 7.90 0.0 0 0.00 0.00 0.00 0.00
05/28/20 4:40:21 AM 24 0.0 3.0 43 83 81.2 61.0 29.903 7.90 0.0 0 0.00 0.00 0.00 0.00
05/28/20 4:41:33 AM 24 0.0 3.0 43 82 81.2 61.0 29.903 7.90 0.0 0 0.00 0.00 0.00 0.00
05/28/20 4:42:22 AM 24 0.0 3.0 43 83 81.2 61.0 29.903 7.90 0.0 0 0.00 0.00 0.00 0.00
05/28/20 4:43:31 AM 24 0.0 3.0 43 82 81.2 61.0 29.903 7.90 0.0 0 0.00 0.00 0.00 0.00
05/28/20 4:44:19 AM 24 0.0 3.0 43 82 81.1 61.0 29.902 7.90 0.0 0 0.00 0.00 0.00 0.00
05/28/20 4:45:32 AM 24 0.0 3.0 43 82 81.1 60.9 29.904 7.90 0.0 0 0.00 0.00 0.00 0.00
05/28/20 4:46:20 AM 24 0.0 3.0 43 82 81.1 60.9 29.905 7.90 0.0 0 0.00 0.00 0.00 0.00
05/28/20 4:47:26 AM 24 0.0 3.0 43 83 81.1 60.9 29.903 7.90 0.0 0 0.00 0.00 0.00 0.00
05/28/20 4:48:17 AM 24 0.0 3.0 43 83 81.1 61.0 29.903 7.90 0.0 0 0.00 0.00 0.00 0.00
05/28/20 4:49:30 AM 24 0.0 3.0 43 83 81.1 60.9 29.904 7.90 0.0 0 0.00 0.00 0.00 0.00
05/28/20 4:50:21 AM 24 0.0 3.0 43 83 81.1 60.9 29.903 7.90 0.0 0 0.00 0.00 0.00 0.00
05/28/20 4:51:33 AM 24 0.0 3.0 43 83 81.1 60.9 29.903 7.90 0.0 0 0.00 0.00 0.00 0.00
05/28/20 4:52:24 AM 24 0.0 3.0 43 83 81.0 60.9 29.903 7.90 0.0 0 0.00 0.00 0.00 0.00
05/28/20 4:53:33 AM 24 0.0 3.0 43 83 81.0 60.9 29.904 7.90 0.0 0 0.00 0.00 0.00 0.00
05/28/20 4:54:25 AM 24 0.0 3.0 43 83 81.0 60.9 29.903 7.90 0.0 0 0.00 0.00 0.00 0.00
05/28/20 4:55:34 AM 24 0.0 3.0 43 83 81.0 60.9 29.904 7.90 0.0 0 0.00 0.00 0.00 0.00
05/28/20 4:56:22 AM 24 0.0 3.0 43 83 81.0 60.9 29.904 7.90 0.0 0 0.00 0.00 0.00 0.00
05/28/20 4:57:35 AM 24 0.0 3.0 43 83 81.0 60.9 29.902 7.90 0.0 0 0.00 0.00 0.00 0.00
05/28/20 4:58:23 AM 24 0.0 3.0 43 83 81.0 60.9 29.903 7.90 0.0 0 0.00 0.00 0.00 0.00
05/28/20 4:59:32 AM 24 0.0 3.0 43 83 81.0 60.9 29.904 7.90 0.0 0 0.00 0.00 0.00 0.00
05/28/20 5:00:23 AM 24 0.0 3.0 43 83 81.0 60.9 29.903 7.90 0.0 0 0.00 0.00 0.00 0.00
05/28/20 5:01:36 AM 24 0.0 3.0 43 83 81.0 60.9 29.903 7.90 0.0 0 0.00 0.00 0.00 0.00
05/28/20 5:02:24 AM 24 0.0 3.0 43 83 80.9 60.9 29.900 7.90 0.0 0 0.00 0.00 0.00 0.00
05/28/20 5:03:30 AM 24 0.0 3.0 43 83 81.0 60.9 29.901 7.90 0.0 0 0.00 0.00 0.00 0.00
05/28/20 5:04:21 AM 24 0.0 3.0 43 83 80.9 60.8 29.905 7.90 0.0 0 0.00 0.00 0.00 0.00
05/28/20 5:05:34 AM 24 0.0 3.0 43 83 80.9 60.8 29.903 7.90 0.0 0 0.00 0.00 0.00 0.00
05/28/20 5:06:22 AM 24 0.0 3.0 43 83 80.9 60.8 29.901 7.90 0.0 0 0.00 0.00 0.00 0.00
05/28/20 5:07:34 AM 24 0.0 3.0 43 83 81.0 60.8 29.904 7.90 0.0 0 0.00 0.00 0.00 0.00
05/28/20 5:08:22 AM 24 0.0 3.0 43 83 80.9 60.8 29.904 7.90 0.0 0 0.00 0.00 0.00 0.00
05/28/20 5:09:35 AM 24 0.0 3.0 43 83 80.9 60.8 29.903 7.90 0.0 0 0.00 0.00 0.00 0.00
05/28/20 5:10:26 AM 24 0.0 3.0 43 83 80.9 60.7 29.902 7.90 0.0 0 0.00 0.00 0.00 0.00
05/28/20 5:11:17 AM 24 0.0 3.0 43 83 80.9 60.7 29.903 7.90 0.0 0 0.00 0.00 0.00 0.00
05/28/20 5:12:26 AM 24 0.0 3.0 43 83 80.9 60.7 29.904 7.90 0.0 0 0.00 0.00 0.00 0.00
05/28/20 5:13:17 AM 24 0.0 3.0 43 83 80.9 60.7 29.903 7.90 0.0 0 0.00 0.00 0.00 0.00
05/28/20 5:14:24 AM 24 0.0 3.0 43 83 80.9 60.6 29.901 7.90 0.0 0 0.00 0.00 0.00 0.00
05/28/20 5:15:36 AM 24 0.0 3.0 43 83 80.9 60.6 29.904 7.90 0.0 0 0.00 0.00 0.00 0.00
05/28/20 5:16:27 AM 24 0.0 3.0 43 83 80.9 60.5 29.905 7.90 0.0 0 0.00 0.00 0.00 0.00
05/28/20 5:17:18 AM 24 0.0 3.0 43 83 80.9 60.5 29.906 7.90 0.0 0 0.00 0.00 0.00 0.00
05/28/20 5:18:28 AM 24 0.0 3.0 44 83 80.9 60.5 29.906 7.90 0.0 0 0.00 0.00 0.00 0.00
05/28/20 5:19:34 AM 24 0.0 3.0 44 83 80.9 60.5 29.905 7.90 0.0 0 0.00 0.00 0.00 0.00
05/28/20 5:20:26 AM 24 0.0 3.0 44 83 80.9 60.5 29.906 7.90 0.0 0 0.00 0.00 0.00 0.00
05/28/20 5:21:35 AM 24 0.0 3.0 44 83 80.8 60.5 29.905 7.90 0.0 0 0.00 0.00 0.00 0.00
05/28/20 5:22:26 AM 24 0.0 3.0 44 83 80.8 60.4 29.908 7.90 0.0 0 0.00 0.00 0.00 0.00
05/28/20 5:23:20 AM 24 0.0 3.0 44 84 80.8 60.5 29.907 7.90 0.0 0 0.00 0.00 0.00 0.00
05/28/20 5:24:27 AM 23 0.0 3.0 44 84 80.8 60.5 29.907 7.90 0.0 0 0.00 0.00 0.00 0.00
05/28/20 5:25:18 AM 23 0.0 3.0 44 84 80.7 60.5 29.907 7.90 0.0 0 0.00 0.00 0.00 0.00
05/28/20 5:26:27 AM 23 0.0 3.0 44 84 80.8 60.5 29.905 7.90 0.0 0 0.00 0.00 0.00 0.00
05/28/20 5:27:21 AM 23 0.0 3.0 44 84 80.7 60.5 29.905 7.90 0.0 0 0.00 0.00 0.00 0.00
05/28/20 5:28:31 AM 23 0.0 3.0 44 84 80.7 60.5 29.904 7.90 0.0 0 0.00 0.00 0.00 0.00
05/28/20 5:29:16 AM 23 0.0 3.0 44 84 80.8 60.5 29.903 7.90 0.0 0 0.00 0.00 0.00 0.00
05/28/20 5:30:31 AM 23 0.0 3.0 44 84 80.7 60.5 29.905 7.90 0.0 0 0.00 0.00 0.00 0.00
05/28/20 5:31:19 AM 23 0.0 3.0 44 84 80.7 60.6 29.905 7.90 0.0 0 0.00 0.00 0.00 0.00
05/28/20 5:32:32 AM 23 0.0 3.0 44 84 80.7 60.6 29.903 7.90 0.0 0 0.00 0.00 0.00 0.00
05/28/20 5:33:20 AM 12 0.0 3.0 44 84 80.7 60.6 29.905 7.90 0.0 0 0.00 0.00 0.00 0.00
05/28/20 5:34:26 AM 5 0.0 3.0 44 84 80.7 60.5 29.908 7.90 0.0 0 0.00 0.00 0.00 0.00
05/28/20 5:35:18 AM 5 0.0 3.0 44 84 80.7 60.5 29.908 7.90 0.0 0 0.00 0.00 0.00 0.00
05/28/20 5:36:30 AM 5 0.0 3.0 44 84 80.6 60.5 29.904 7.90 0.0 0 0.00 0.00 0.00 0.00
05/28/20 5:37:21 AM 5 0.0 3.0 44 84 80.6 60.5 29.904 7.90 0.0 0 0.00 0.00 0.00 0.00
05/28/20 5:38:30 AM 5 0.0 3.0 44 84 80.6 60.5 29.906 7.90 0.0 0 0.00 0.00 0.00 0.00
05/28/20 5:39:22 AM 5 0.0 3.0 44 84 80.6 60.5 29.903 7.90 0.0 0 0.00 0.00 0.00 0.00
05/28/20 5:40:31 AM 5 0.0 3.0 44 84 80.6 60.5 29.905 7.90 0.0 0 0.00 0.00 0.00 0.00
05/28/20 5:41:19 AM 5 0.0 3.0 44 84 80.5 60.5 29.905 7.90 0.0 0 0.00 0.00 0.00 0.00
05/28/20 5:42:32 AM 5 0.0 3.0 44 84 80.5 60.5 29.905 7.90 0.0 0 0.00 0.00 0.00 0.00
05/28/20 5:43:23 AM 5 0.0 3.0 44 84 80.5 60.5 29.905 7.90 0.0 0 0.00 0.00 0.00 0.00
05/28/20 5:44:32 AM 5 0.0 3.0 44 84 80.5 60.4 29.906 7.90 0.0 5 0.00 0.00 0.00 0.00
05/28/20 5:45:23 AM 5 0.0 3.0 44 83 80.5 60.4 29.908 7.90 0.0 5 0.00 0.00 0.00 0.00
05/28/20 5:46:33 AM 5 0.0 3.0 44 84 80.5 60.4 29.907 7.90 0.0 5 0.00 0.00 0.00 0.00
05/28/20 5:47:24 AM 340 0.0 3.0 44 83 80.4 60.4 29.907 7.90 0.0 5 0.00 0.00 0.00 0.00
05/28/20 5:48:15 AM 347 1.0 3.0 44 83 80.5 60.3 29.905 7.90 0.0 5 0.00 0.00 0.00 0.00
05/28/20 5:49:28 AM 355 1.0 3.0 44 83 80.4 60.3 29.904 7.90 0.0 7 0.00 0.00 0.00 0.00
05/28/20 5:50:34 AM 215 2.0 3.0 44 83 80.4 60.3 29.907 7.90 0.0 7 0.00 0.00 0.00 0.00
05/28/20 5:51:25 AM 215 2.0 3.0 44 83 80.4 60.3 29.907 7.90 0.0 7 0.00 0.00 0.00 0.00
05/28/20 5:52:16 AM 215 0.0 3.0 44 83 80.4 60.3 29.907 7.90 0.0 7 0.00 0.00 0.00 0.00
05/28/20 5:53:26 AM 215 0.0 3.0 44 83 80.4 60.3 29.906 7.90 0.0 7 0.00 0.00 0.00 0.00
05/28/20 5:54:17 AM 215 0.0 3.0 44 83 80.3 60.3 29.907 7.90 0.0 9 0.00 0.00 0.00 0.00
05/28/20 5:55:26 AM 215 0.0 3.0 44 83 80.3 60.2 29.906 7.90 0.0 9 0.00 0.00 0.00 0.00
05/28/20 5:56:17 AM 215 0.0 3.0 44 83 80.3 60.2 29.905 7.90 0.0 9 0.00 0.00 0.00 0.00
05/28/20 5:57:30 AM 215 0.0 3.0 44 83 80.3 60.2 29.908 7.90 0.0 9 0.00 0.00 0.00 0.00
05/28/20 5:58:24 AM 215 1.0 3.0 44 83 80.3 60.2 29.908 7.90 0.0 11 0.00 0.00 0.00 0.00
05/28/20 5:59:15 AM 215 2.0 3.0 44 83 80.3 60.2 29.906 7.90 0.0 11 0.00 0.00 0.00 0.00
05/28/20 6:00:28 AM 215 1.0 3.0 44 83 80.3 60.2 29.908 7.90 0.0 11 0.00 0.00 0.00 0.00
05/28/20 6:01:32 AM 215 1.0 3.0 44 83 80.2 60.2 29.907 7.90 0.0 11 0.00 0.00 0.00 0.00
05/28/20 6:02:23 AM 215 0.0 3.0 44 83 80.3 60.2 29.908 7.90 0.0 12 0.00 0.00 0.00 0.00
05/28/20 6:03:32 AM 215 0.0 3.0 44 84 80.2 60.2 29.909 7.90 0.0 12 0.00 0.00 0.00 0.00
05/28/20 6:04:24 AM 215 0.0 3.0 44 83 80.3 60.2 29.910 7.90 0.0 12 0.00 0.00 0.00 0.00
05/28/20 6:05:15 AM 215 0.0 3.0 44 83 80.3 60.2 29.911 7.90 0.0 12 0.00 0.00 0.00 0.00
05/28/20 6:06:24 AM 215 0.0 3.0 44 83 80.3 60.2 29.911 7.90 0.0 12 0.00 0.00 0.00 0.00
05/28/20 6:07:34 AM 215 0.0 3.0 44 83 80.3 60.2 29.911 7.90 0.0 14 0.00 0.00 0.00 0.00
05/28/20 6:08:25 AM 215 0.0 3.0 44 83 80.2 60.2 29.911 7.90 0.0 14 0.00 0.00 0.00 0.00
05/28/20 6:09:16 AM 215 0.0 3.0 44 83 80.2 60.2 29.910 7.90 0.0 14 0.00 0.00 0.00 0.00
05/28/20 6:10:29 AM 215 0.0 3.0 44 83 80.3 60.1 29.910 7.90 0.0 16 0.00 0.00 0.00 0.00
05/28/20 6:11:35 AM 215 0.0 3.0 44 83 80.2 60.1 29.913 7.90 0.0 16 0.00 0.00 0.00 0.00
05/28/20 6:12:26 AM 215 0.0 3.0 44 83 80.2 60.1 29.910 7.90 0.0 16 0.00 0.00 0.00 0.00
05/28/20 6:13:36 AM 215 0.0 3.0 44 84 80.2 60.1 29.910 7.90 0.0 18 0.00 0.00 0.00 0.00
05/28/20 6:14:27 AM 215 0.0 3.0 44 84 80.2 60.1 29.909 7.90 0.0 18 0.00 0.00 0.00 0.00
05/28/20 6:15:21 AM 215 0.0 3.0 44 84 80.2 60.2 29.911 7.90 0.0 18 0.00 0.00 0.00 0.00
05/28/20 6:16:28 AM 215 0.0 3.0 44 84 80.2 60.2 29.912 7.90 0.0 18 0.00 0.00 0.00 0.00
05/28/20 6:17:16 AM 215 1.0 3.0 44 84 80.2 60.2 29.911 7.90 0.0 19 0.00 0.00 0.00 0.00
05/28/20 6:18:29 AM 215 0.0 3.0 44 84 80.2 60.2 29.912 7.90 0.0 23 0.00 0.00 0.00 0.00
05/28/20 6:19:20 AM 215 0.0 3.0 44 84 80.2 60.2 29.913 7.90 0.0 30 0.00 0.00 0.00 0.00
05/28/20 6:20:33 AM 215 1.0 3.0 44 84 80.2 60.2 29.911 7.90 0.0 32 0.00 0.00 0.00 0.00
05/28/20 6:21:21 AM 215 1.0 3.0 44 84 80.1 60.2 29.910 7.90 0.0 33 0.00 0.00 0.00 0.00
05/28/20 6:22:30 AM 215 1.0 3.0 44 84 80.1 60.2 29.911 7.90 0.0 35 0.00 0.00 0.00 0.00
05/28/20 6:23:19 AM 215 2.0 3.0 44 84 80.1 60.2 29.910 7.90 0.0 37 0.00 0.00 0.00 0.00
05/28/20 6:24:28 AM 215 1.0 3.0 44 84 80.1 60.3 29.911 7.90 0.0 39 0.00 0.00 0.00 0.00
05/28/20 6:25:22 AM 215 0.0 3.0 44 84 80.1 60.3 29.910 7.90 0.0 40 0.00 0.00 0.00 0.00
05/28/20 6:26:32 AM 215 0.0 3.0 44 84 80.1 60.3 29.909 7.90 0.0 42 0.00 0.00 0.00 0.00
05/28/20 6:27:17 AM 215 0.0 3.0 44 84 80.1 60.3 29.909 7.90 0.0 42 0.00 0.00 0.00 0.00
05/28/20 6:28:30 AM 215 1.0 3.0 44 84 80.1 60.4 29.910 7.90 0.0 46 0.00 0.00 0.00 0.00
05/28/20 6:29:24 AM 215 0.0 3.0 44 84 80.0 60.4 29.910 7.90 0.0 47 0.00 0.00 0.00 0.00
05/28/20 6:30:33 AM 215 0.0 3.0 44 84 80.0 60.4 29.910 7.90 0.0 49 0.00 0.00 0.00 0.00
05/28/20 6:31:25 AM 215 0.0 3.0 44 83 80.0 60.4 29.912 7.90 0.0 51 0.00 0.00 0.00 0.00
05/28/20 6:32:31 AM 215 1.0 3.0 44 83 80.0 60.4 29.910 7.90 0.0 53 0.00 0.00 0.00 0.00
05/28/20 6:33:26 AM 215 0.0 3.0 44 84 80.0 60.4 29.910 7.90 0.0 56 0.00 0.00 0.00 0.00
05/28/20 6:34:35 AM 215 0.0 3.0 44 83 80.0 60.5 29.909 7.90 0.0 58 0.00 0.00 0.00 0.00
05/28/20 6:35:26 AM 215 1.0 3.0 44 83 80.0 60.5 29.911 7.90 0.0 60 0.00 0.00 0.00 0.00
05/28/20 6:36:17 AM 215 1.0 3.0 44 83 79.9 60.5 29.914 7.90 0.0 62 0.00 0.00 0.00 0.00
05/28/20 6:37:24 AM 215 0.0 3.0 44 83 79.9 60.6 29.914 7.90 0.0 62 0.00 0.00 0.00 0.00
05/28/20 6:38:37 AM 215 0.0 3.0 44 83 79.9 60.6 29.912 7.90 0.0 67 0.00 0.00 0.00 0.00
05/28/20 6:39:28 AM 215 0.0 3.0 44 83 79.9 60.7 29.911 7.90 0.0 70 0.00 0.00 0.00 0.00
05/28/20 6:40:19 AM 215 0.0 3.0 44 83 80.0 60.7 29.913 7.90 0.0 72 0.00 0.00 0.00 0.00
05/28/20 6:41:29 AM 215 0.0 3.0 44 83 79.9 60.8 29.913 7.90 0.0 76 0.00 0.00 0.00 0.00
05/28/20 6:42:20 AM 215 0.0 3.0 44 83 79.9 60.9 29.915 7.90 0.0 77 0.00 0.00 0.00 0.00
05/28/20 6:43:30 AM 215 0.0 3.0 44 83 79.9 60.9 29.913 7.90 0.0 83 0.00 0.00 0.00 0.00
05/28/20 6:44:18 AM 215 0.0 3.0 44 83 79.9 61.0 29.912 7.90 0.0 83 0.00 0.00 0.00 0.00
05/28/20 6:45:31 AM 215 0.0 3.0 44 83 79.9 61.0 29.912 7.90 0.0 88 0.00 0.00 0.00 0.00
05/28/20 6:46:22 AM 215 1.0 3.0 44 83 79.9 61.1 29.913 7.90 0.0 91 0.00 0.00 0.00 0.00
05/28/20 6:47:35 AM 215 0.0 3.0 44 83 79.9 61.2 29.915 7.90 0.0 95 0.00 0.00 0.00 0.00
05/28/20 6:48:23 AM 215 0.0 3.0 44 83 79.9 61.3 29.915 7.90 0.0 95 0.00 0.00 0.00 0.00
05/28/20 6:49:32 AM 215 0.0 3.0 44 83 79.9 61.4 29.915 7.90 0.0 100 0.00 0.00 0.00 0.00
05/28/20 6:50:23 AM 215 0.0 3.0 44 83 79.9 61.6 29.913 7.90 0.0 104 0.00 0.00 0.00 0.00
05/28/20 6:51:33 AM 215 0.0 3.0 44 83 79.9 61.7 29.915 7.90 0.0 105 0.00 0.00 0.00 0.00
05/28/20 6:52:24 AM 215 0.0 3.0 44 83 79.9 61.8 29.916 7.90 0.0 109 0.00 0.00 0.00 0.00
05/28/20 6:53:31 AM 214 1.0 3.0 44 83 79.9 62.0 29.918 7.90 0.0 113 0.00 0.00 0.00 0.00
05/28/20 6:54:22 AM 214 2.0 3.0 44 83 80.0 62.2 29.914 7.90 0.0 116 0.00 0.00 0.00 0.00
05/28/20 6:55:35 AM 214 1.0 3.0 44 82 79.9 62.3 29.917 7.90 0.0 118 0.00 0.00 0.00 0.00
05/28/20 6:56:26 AM 214 1.0 3.0 44 82 79.9 62.5 29.916 7.90 0.0 121 0.00 0.00 0.00 0.00
05/28/20 6:57:17 AM 214 1.0 3.0 44 82 80.0 62.7 29.916 7.90 0.0 125 0.00 0.00 0.00 0.00
05/28/20 6:58:27 AM 214 1.0 3.0 44 81 79.9 62.9 29.919 7.90 0.0 132 0.00 0.00 0.00 0.00
05/28/20 6:59:36 AM 214 0.0 3.0 44 81 80.0 63.0 29.918 7.90 0.0 134 0.00 0.00 0.00 0.00
05/28/20 7:00:28 AM 214 0.0 3.0 44 81 80.0 63.1 29.918 7.90 0.0 137 0.00 0.00 0.00 0.00
05/28/20 7:01:19 AM 214 0.0 3.0 44 81 79.9 63.3 29.916 7.90 0.0 141 0.00 0.00 0.00 0.00
05/28/20 7:02:32 AM 214 0.0 3.0 44 81 80.0 63.4 29.918 7.90 0.0 144 0.00 0.00 0.00 0.00
05/28/20 7:03:23 AM 214 0.0 3.0 44 80 79.9 63.5 29.917 7.90 0.0 148 0.00 0.00 0.00 0.00
05/28/20 7:04:29 AM 190 1.0 3.0 44 80 80.0 63.7 29.917 7.90 0.0 151 0.00 0.00 0.00 0.00
05/28/20 7:05:21 AM 190 0.0 3.0 44 80 80.0 63.9 29.919 7.90 0.0 155 0.00 0.00 0.00 0.00
05/28/20 7:06:33 AM 190 0.0 3.0 44 79 80.0 64.1 29.919 7.90 0.0 158 0.00 0.00 0.00 0.00
05/28/20 7:07:25 AM 190 0.0 3.0 44 78 80.0 64.2 29.918 7.90 0.0 162 0.00 0.00 0.00 0.00
05/28/20 7:08:34 AM 190 0.0 3.0 44 78 80.0 64.4 29.920 7.90 0.0 165 0.00 0.00 0.00 0.00
05/28/20 7:09:23 AM 190 1.0 3.0 44 78 80.0 64.5 29.919 7.90 0.0 169 0.00 0.00 0.00 0.00
05/28/20 7:10:35 AM 190 0.0 3.0 44 77 80.0 64.7 29.919 7.90 0.0 172 0.00 0.00 0.00 0.00
05/28/20 7:11:26 AM 190 0.0 3.0 44 77 80.0 64.8 29.919 7.90 0.0 176 0.00 0.00 0.00 0.00
05/28/20 7:12:36 AM 190 0.0 3.0 44 77 80.0 65.0 29.917 7.90 0.0 183 0.00 0.00 0.00 0.00
05/28/20 7:13:27 AM 190 0.0 3.0 44 76 80.0 65.1 29.918 7.90 0.0 186 0.00 0.00 0.00 0.00
05/28/20 7:14:34 AM 190 0.0 3.0 44 76 80.0 65.3 29.916 7.90 0.0 190 0.00 0.00 0.00 0.00
05/28/20 7:15:29 AM 190 0.0 3.0 44 76 80.1 65.4 29.917 7.90 0.0 190 0.00 0.00 0.00 0.00
05/28/20 7:16:17 AM 190 0.0 3.0 44 75 80.0 65.6 29.917 7.90 0.0 195 0.00 0.00 0.00 0.00
05/28/20 7:17:30 AM 190 0.0 3.0 44 75 80.1 65.7 29.916 7.90 0.0 199 0.00 0.00 0.00 0.00
05/28/20 7:18:18 AM 190 0.0 3.0 44 75 80.0 65.8 29.917 7.90 0.0 202 0.00 0.00 0.00 0.00
05/28/20 7:19:24 AM 190 0.0 3.0 44 75 80.0 66.1 29.916 7.90 0.0 206 0.00 0.00 0.00 0.00
05/28/20 7:20:16 AM 190 0.0 3.0 44 74 80.0 66.2 29.916 7.90 0.0 209 0.00 0.00 0.00 0.00
05/28/20 7:21:28 AM 190 0.0 3.0 44 74 80.1 66.4 29.915 7.90 0.0 213 0.00 0.00 0.00 0.00
05/28/20 7:22:20 AM 190 0.0 3.0 44 74 80.0 66.5 29.918 7.90 0.0 214 0.00 0.00 0.00 0.00
05/28/20 7:23:29 AM 190 0.0 3.0 44 73 80.1 66.6 29.916 7.90 0.0 218 0.00 0.00 0.00 0.00
05/28/20 7:24:21 AM 190 0.0 3.0 44 73 80.1 66.7 29.917 7.90 0.0 221 0.00 0.00 0.00 0.00
05/28/20 7:25:24 AM 190 0.0 3.0 44 73 80.1 66.9 29.916 7.90 0.0 225 0.00 0.00 0.00 0.00
05/28/20 7:26:36 AM 190 0.0 3.0 44 73 80.1 67.1 29.914 7.90 0.0 232 0.00 0.00 0.00 0.00
05/28/20 7:27:28 AM 190 0.0 3.0 44 72 80.1 67.2 29.914 7.90 0.0 236 0.00 0.00 0.00 0.00
05/28/20 7:28:16 AM 190 0.0 3.0 44 72 80.0 67.2 29.914 7.90 0.0 236 0.00 0.00 0.00 0.00
05/28/20 7:29:29 AM 190 0.0 3.0 44 72 80.1 67.4 29.915 7.90 0.0 243 0.00 0.00 0.00 0.00
05/28/20 7:30:20 AM 190 0.0 3.0 44 72 80.1 67.4 29.914 7.90 0.0 244 0.00 0.00 0.00 0.00
05/28/20 7:31:27 AM 163 0.0 3.0 44 72 80.1 67.6 29.914 7.90 0.5 248 0.00 0.00 0.00 0.00
05/28/20 7:32:21 AM 163 0.0 3.0 44 71 80.1 67.6 29.913 7.90 0.5 251 0.00 0.00 0.00 0.00
05/28/20 7:33:31 AM 163 0.0 3.0 44 71 80.1 67.8 29.914 7.90 0.5 255 0.00 0.00 0.00 0.00
05/28/20 7:34:22 AM 163 0.0 3.0 44 71 80.1 67.8 29.913 7.90 0.5 258 0.00 0.00 0.00 0.00
05/28/20 7:35:28 AM 163 0.0 3.0 44 71 80.1 68.0 29.914 7.90 0.5 260 0.00 0.00 0.00 0.00
05/28/20 7:36:20 AM 163 0.0 3.0 44 70 80.1 68.1 29.913 7.90 0.5 264 0.00 0.00 0.00 0.00
05/28/20 7:37:32 AM 163 0.0 3.0 44 70 80.1 68.2 29.913 7.90 0.5 267 0.00 0.00 0.00 0.00
05/28/20 7:38:24 AM 163 0.0 3.0 44 70 80.1 68.3 29.913 7.90 0.5 271 0.00 0.00 0.00 0.00
05/28/20 7:39:36 AM 163 0.0 3.0 44 70 80.1 68.4 29.914 7.90 0.5 274 0.00 0.00 0.00 0.00
05/28/20 7:40:25 AM 163 0.0 3.0 44 70 80.1 68.5 29.913 7.90 0.6 278 0.00 0.00 0.00 0.00
05/28/20 7:41:16 AM 164 0.0 3.0 44 69 80.1 68.7 29.912 7.90 0.6 279 0.00 0.00 0.00 0.00
05/28/20 7:42:29 AM 164 0.0 3.0 44 69 80.1 68.8 29.914 7.90 0.6 287 0.00 0.00 0.00 0.00
05/28/20 7:43:20 AM 164 0.0 3.0 44 69 80.1 68.9 29.914 7.90 0.6 287 0.00 0.00 0.00 0.00
05/28/20 7:44:33 AM 164 0.0 3.0 44 69 80.1 69.0 29.915 7.90 0.6 288 0.00 0.00 0.00 0.00
05/28/20 7:45:24 AM 164 0.0 3.0 44 69 80.2 69.2 29.912 7.90 0.6 295 0.00 0.00 0.00 0.00
05/28/20 7:46:31 AM 164 0.0 3.0 44 68 80.1 69.4 29.912 7.90 0.6 297 0.00 0.00 0.00 0.00
05/28/20 7:47:22 AM 164 0.0 3.0 44 68 80.1 69.5 29.914 7.90 0.6 301 0.00 0.00 0.00 0.00
05/28/20 7:48:32 AM 165 2.0 3.0 44 67 80.1 69.7 29.916 7.90 0.7 304 0.00 0.00 0.00 0.00
05/28/20 7:49:26 AM 177 1.0 3.0 44 67 80.1 69.8 29.914 7.90 0.7 308 0.00 0.00 0.00 0.00
05/28/20 7:50:18 AM 177 1.0 3.0 44 67 80.1 69.8 29.915 7.90 0.7 309 0.00 0.00 0.00 0.00
05/28/20 7:51:24 AM 177 0.0 3.0 44 67 80.2 69.9 29.916 7.90 0.7 313 0.00 0.00 0.00 0.00
05/28/20 7:52:16 AM 177 0.0 3.0 44 67 80.2 70.0 29.914 7.90 0.7 316 0.00 0.00 0.00 0.00
05/28/20 7:53:32 AM 177 0.0 3.0 44 67 80.1 70.1 29.914 7.90 0.7 320 0.00 0.00 0.00 0.00
05/28/20 7:54:20 AM 177 0.0 3.0 44 66 80.2 70.2 29.915 7.90 0.7 322 0.00 0.00 0.00 0.00
05/28/20 7:55:33 AM 177 0.0 3.0 44 66 80.2 70.3 29.913 7.90 0.8 327 0.00 0.00 0.00 0.00
05/28/20 7:56:21 AM 177 0.0 3.0 44 66 80.2 70.4 29.915 7.90 0.8 330 0.00 0.00 0.00 0.00
05/28/20 7:57:34 AM 177 0.0 3.0 44 66 80.2 70.5 29.916 7.90 0.8 336 0.00 0.00 0.00 0.00
05/28/20 7:58:25 AM 177 0.0 3.0 44 66 80.2 70.6 29.917 7.90 0.8 338 0.00 0.00 0.00 0.00
05/28/20 7:59:16 AM 177 0.0 3.0 44 65 80.2 70.7 29.915 7.90 0.8 338 0.00 0.00 0.00 0.00
05/28/20 8:00:32 AM 177 0.0 3.0 44 65 80.2 70.9 29.915 7.90 0.8 345 0.00 0.00 0.00 0.00
05/28/20 8:01:20 AM 177 0.0 3.0 44 65 80.2 71.0 29.914 7.90 0.8 348 0.00 0.00 0.00 0.00
05/28/20 8:02:30 AM 177 0.0 3.0 44 65 80.2 71.1 29.915 7.90 0.9 352 0.00 0.00 0.00 0.00
05/28/20 8:03:22 AM 177 0.0 3.0 44 65 80.2 71.2 29.914 7.90 0.9 352 0.00 0.00 0.00 0.00
05/28/20 8:04:34 AM 177 0.0 3.0 44 64 80.2 71.3 29.916 7.90 0.9 357 0.00 0.00 0.00 0.00
05/28/20 8:05:26 AM 177 0.0 3.0 44 64 80.2 71.5 29.915 7.90 0.9 360 0.00 0.00 0.00 0.00
05/28/20 8:06:20 AM 177 0.0 3.0 44 64 80.2 71.6 29.915 7.90 0.9 364 0.00 0.00 0.00 0.00
05/28/20 8:07:27 AM 177 0.0 3.0 44 64 80.2 71.8 29.915 7.90 0.9 367 0.00 0.00 0.00 0.00
05/28/20 8:08:18 AM 177 0.0 3.0 44 64 80.2 71.9 29.915 7.90 1.0 369 0.00 0.00 0.00 0.00
05/28/20 8:09:28 AM 177 2.0 3.0 44 63 80.2 72.1 29.915 7.90 1.0 371 0.00 0.00 0.00 0.00
05/28/20 8:10:22 AM 177 1.0 3.0 44 62 80.2 72.2 29.916 7.90 1.0 376 0.00 0.00 0.00 0.00
05/28/20 8:11:32 AM 177 0.0 3.0 44 62 80.2 72.3 29.915 7.90 1.0 381 0.00 0.00 0.00 0.00
05/28/20 8:12:20 AM 177 0.0 3.0 44 62 80.2 72.5 29.917 7.90 1.0 381 0.00 0.00 0.00 0.00
05/28/20 8:13:34 AM 177 1.0 3.0 44 62 80.2 72.6 29.917 7.90 1.0 388 0.00 0.00 0.00 0.00
05/28/20 8:14:25 AM 177 1.0 3.0 44 62 80.2 72.7 29.918 7.90 1.1 392 0.00 0.00 0.00 0.00
05/28/20 8:15:20 AM 176 2.0 3.0 44 61 80.3 72.8 29.916 7.90 1.1 394 0.00 0.00 0.00 0.00
05/28/20 8:16:30 AM 176 0.0 3.0 44 61 80.2 72.9 29.918 7.90 1.1 397 0.00 0.00 0.00 0.00
05/28/20 8:17:21 AM 176 1.0 3.0 44 61 80.3 73.0 29.919 7.90 1.1 401 0.00 0.00 0.00 0.00
05/28/20 8:18:31 AM 176 0.0 3.0 44 60 80.2 73.1 29.919 7.90 1.1 401 0.00 0.00 0.00 0.00
05/28/20 8:19:22 AM 176 0.0 3.0 44 60 80.2 73.1 29.920 7.90 1.1 408 0.00 0.00 0.00 0.00
05/28/20 8:20:32 AM 176 1.0 3.0 44 60 80.3 73.2 29.920 7.90 1.2 410 0.00 0.00 0.00 0.00
05/28/20 8:21:26 AM 176 1.0 3.0 44 60 80.3 73.3 29.921 7.90 1.2 413 0.00 0.00 0.00 0.00
05/28/20 8:22:18 AM 176 0.0 3.0 44 60 80.3 73.4 29.918 7.90 1.2 415 0.00 0.00 0.00 0.00
05/28/20 8:23:28 AM 176 1.0 3.0 44 59 80.3 73.5 29.919 7.90 1.2 418 0.00 0.00 0.00 0.00
05/28/20 8:24:19 AM 176 1.0 3.0 44 59 80.3 73.6 29.920 7.90 1.2 422 0.00 0.00 0.00 0.00
05/28/20 8:25:32 AM 176 0.0 3.0 44 59 80.4 73.7 29.920 7.90 1.2 422 0.00 0.00 0.00 0.00
05/28/20 8:26:23 AM 176 1.0 3.0 44 59 80.4 73.7 29.921 7.90 1.3 427 0.00 0.00 0.00 0.00
05/28/20 8:27:36 AM 176 0.0 3.0 44 59 80.4 73.9 29.920 7.90 1.3 434 0.00 0.00 0.00 0.00
05/28/20 8:28:25 AM 176 1.0 3.0 44 58 80.3 73.9 29.922 7.90 1.3 434 0.00 0.00 0.00 0.00
05/28/20 8:29:34 AM 176 1.0 3.0 44 58 80.4 74.1 29.921 7.90 1.3 441 0.00 0.00 0.00 0.00
05/28/20 8:30:29 AM 176 0.0 3.0 44 57 80.4 74.1 29.923 7.90 1.3 441 0.00 0.00 0.00 0.00
05/28/20 8:31:20 AM 176 1.0 3.0 44 57 80.4 74.2 29.922 7.90 1.3 446 0.00 0.00 0.00 0.00
05/28/20 8:32:33 AM 176 1.0 3.0 44 57 80.4 74.4 29.923 7.90 1.4 450 0.00 0.00 0.00 0.00
05/28/20 8:33:24 AM 177 2.0 3.0 44 57 80.4 74.5 29.922 7.90 1.4 452 0.00 0.00 0.00 0.00
05/28/20 8:34:31 AM 178 2.0 3.0 44 57 80.4 74.6 29.924 7.90 1.4 455 0.00 0.00 0.00 0.00
05/28/20 8:35:25 AM 178 2.0 3.0 44 57 80.4 74.7 29.923 7.90 1.4 457 0.00 0.00 0.00 0.00
05/28/20 8:36:17 AM 178 2.0 3.0 44 57 80.4 74.8 29.923 7.90 1.4 461 0.00 0.00 0.00 0.00
05/28/20 8:37:30 AM 178 0.0 3.0 44 56 80.4 74.9 29.922 7.90 1.5 464 0.00 0.00 0.00 0.00
05/28/20 8:38:18 AM 178 0.0 3.0 44 56 80.4 75.0 29.923 7.90 1.5 468 0.00 0.00 0.00 0.00
05/28/20 8:39:28 AM 178 0.0 3.0 44 56 80.5 75.1 29.924 7.90 1.5 469 0.00 0.00 0.00 0.00
05/28/20 8:40:19 AM 178 1.0 3.0 44 56 80.5 75.2 29.923 7.90 1.5 473 0.00 0.00 0.00 0.00
05/28/20 8:41:32 AM 178 0.0 3.0 44 56 80.5 75.3 29.922 7.90 1.6 476 0.00 0.00 0.00 0.00
05/28/20 8:42:23 AM 178 0.0 3.0 44 56 80.5 75.4 29.923 7.90 1.6 480 0.00 0.00 0.00 0.00
05/28/20 8:43:15 AM 178 0.0 3.0 44 55 80.5 75.5 29.923 7.90 1.6 483 0.00 0.00 0.00 0.00
05/28/20 8:44:25 AM 178 2.0 3.0 44 55 80.5 75.7 29.924 7.90 1.6 489 0.00 0.00 0.00 0.00
05/28/20 8:45:16 AM 194 3.0 4.0 44 56 80.5 75.8 29.921 7.90 1.6 489 0.00 0.00 0.00 0.00
05/28/20 8:46:29 AM 193 0.0 4.0 44 55 80.5 75.9 29.925 7.90 1.7 492 0.00 0.00 0.00 0.00
05/28/20 8:47:21 AM 193 0.0 4.0 44 55 80.5 75.9 29.922 7.90 1.7 499 0.00 0.00 0.00 0.00
05/28/20 8:48:33 AM 248 3.0 4.0 44 56 80.6 76.1 29.922 7.90 1.7 501 0.00 0.00 0.00 0.00
05/28/20 8:49:25 AM 253 2.0 4.0 44 56 80.6 76.2 29.924 7.90 1.7 504 0.00 0.00 0.00 0.00
05/28/20 8:50:32 AM 219 3.0 4.0 44 56 80.6 76.3 29.922 7.90 1.8 508 0.00 0.00 0.00 0.00
05/28/20 8:51:26 AM 241 2.0 4.0 44 56 80.6 76.4 29.923 7.90 1.8 508 0.00 0.00 0.00 0.00
05/28/20 8:52:18 AM 210 3.0 4.0 44 56 80.6 76.5 29.923 7.90 1.8 513 0.00 0.00 0.00 0.00
05/28/20 8:53:31 AM 188 3.0 8.0 44 55 80.6 76.5 29.925 7.90 1.8 517 0.00 0.00 0.00 0.00
05/28/20 8:54:22 AM 193 3.0 8.0 44 55 80.6 76.6 29.923 7.90 1.8 519 0.00 0.00 0.00 0.00
05/28/20 8:55:32 AM 192 2.0 8.0 44 57 80.7 76.6 29.924 7.90 1.8 522 0.00 0.00 0.00 0.00
05/28/20 8:56:23 AM 219 2.0 8.0 44 56 80.6 76.6 29.923 7.90 1.9 524 0.00 0.00 0.00 0.00
05/28/20 8:57:36 AM 229 1.0 8.0 44 56 80.7 76.8 29.925 7.90 1.9 531 0.00 0.00 0.00 0.00
05/28/20 8:58:27 AM 239 3.0 8.0 44 56 80.7 76.9 29.923 7.90 1.9 533 0.00 0.00 0.00 0.00
05/28/20 8:59:19 AM 237 2.0 8.0 44 55 80.7 77.0 29.922 7.90 1.9 534 0.00 0.00 0.00 0.00
05/28/20 9:00:29 AM 234 0.0 8.0 44 54 80.7 77.0 29.924 7.90 2.0 538 0.00 0.00 0.00 0.00
05/28/20 9:01:20 AM 234 0.0 8.0 44 55 80.7 77.1 29.924 7.90 2.0 541 0.00 0.00 0.00 0.00
05/28/20 9:02:33 AM 234 1.0 8.0 44 54 80.7 77.1 29.924 7.90 2.0 545 0.00 0.00 0.00 0.00
05/28/20 9:03:24 AM 234 2.0 8.0 44 54 80.7 77.2 29.923 7.90 2.0 548 0.00 0.00 0.00 0.00
05/28/20 9:04:19 AM 233 1.0 8.0 44 54 80.8 77.2 29.924 7.90 2.1 552 0.00 0.00 0.00 0.00
05/28/20 9:05:32 AM 234 0.0 8.0 44 54 80.7 77.3 29.924 7.90 2.1 554 0.00 0.00 0.00 0.00
05/28/20 9:06:17 AM 257 1.0 8.0 44 54 80.8 77.5 29.925 7.90 2.1 555 0.00 0.00 0.00 0.00
05/28/20 9:07:30 AM 258 0.0 8.0 44 53 80.8 77.6 29.925 7.90 2.1 559 0.00 0.00 0.00 0.00
05/28/20 9:08:21 AM 258 1.0 8.0 44 53 80.8 77.7 29.923 7.90 2.2 563 0.00 0.00 0.00 0.00
05/28/20 9:09:34 AM 258 3.0 8.0 44 52 80.8 77.8 29.924 7.90 2.2 564 0.00 0.00 0.00 0.00
05/28/20 9:10:26 AM 258 2.0 8.0 44 52 80.8 77.8 29.922 7.90 2.2 568 0.00 0.00 0.00 0.00
05/28/20 9:11:35 AM 258 2.0 8.0 44 52 80.8 77.8 29.922 7.90 2.2 573 0.00 0.00 0.00 0.00
05/28/20 9:12:27 AM 258 2.0 8.0 44 53 80.8 78.0 29.921 7.90 2.3 577 0.00 0.00 0.00 0.00
05/28/20 9:13:18 AM 257 2.0 8.0 44 52 80.9 78.0 29.920 7.90 2.3 577 0.00 0.00 0.00 0.00
05/28/20 9:14:31 AM 257 2.0 8.0 44 52 80.9 78.0 29.922 7.90 2.3 582 0.00 0.00 0.00 0.00
05/28/20 9:15:23 AM 257 0.0 8.0 44 52 80.9 78.1 29.923 7.90 2.3 582 0.00 0.00 0.00 0.00
05/28/20 9:16:29 AM 257 1.0 8.0 44 52 80.9 78.1 29.919 7.90 2.4 585 0.00 0.00 0.00 0.00
05/28/20 9:17:21 AM 256 0.0 8.0 44 52 80.9 78.2 29.922 7.90 2.4 589 0.00 0.00 0.00 0.00
05/28/20 9:18:34 AM 256 0.0 8.0 44 52 80.9 78.2 29.920 7.90 2.4 589 0.00 0.00 0.00 0.00
05/28/20 9:19:25 AM 256 0.0 8.0 44 52 80.9 78.3 29.920 7.90 2.4 596 0.00 0.00 0.00 0.00
05/28/20 9:20:17 AM 256 0.0 8.0 44 52 80.9 78.4 29.920 7.90 2.5 599 0.00 0.00 0.00 0.00
05/28/20 9:21:29 AM 255 0.0 8.0 44 52 80.9 78.6 29.919 7.90 2.5 601 0.00 0.00 0.00 0.00
05/28/20 9:22:18 AM 255 0.0 8.0 44 52 80.9 78.8 29.918 7.90 2.5 605 0.00 0.00 0.00 0.00
05/28/20 9:23:31 AM 254 1.0 8.0 44 51 80.9 79.0 29.919 7.90 2.6 608 0.00 0.00 0.00 0.00
05/28/20 9:24:22 AM 254 0.0 8.0 44 50 80.9 79.1 29.921 7.90 2.6 610 0.00 0.00 0.00 0.00
05/28/20 9:25:35 AM 254 1.0 8.0 44 50 81.0 79.2 29.919 7.90 2.6 617 0.00 0.00 0.00 0.00
05/28/20 9:26:27 AM 254 2.0 8.0 44 51 81.0 79.4 29.921 7.90 2.6 617 0.00 0.00 0.00 0.00
05/28/20 9:27:15 AM 254 2.0 8.0 44 51 81.0 79.5 29.919 7.90 2.7 619 0.00 0.00 0.00 0.00
05/28/20 9:28:28 AM 246 2.0 8.0 44 50 81.0 79.8 29.919 7.90 2.7 626 0.00 0.00 0.00 0.00
05/28/20 9:29:22 AM 244 2.0 8.0 44 49 81.0 79.8 29.918 7.90 2.7 629 0.00 0.00 0.00 0.00
05/28/20 9:30:35 AM 240 1.0 8.0 44 49 81.0 80.0 29.919 7.90 2.8 631 0.00 0.00 0.00 0.00
05/28/20 9:31:27 AM 240 1.0 8.0 44 49 81.0 80.0 29.920 7.90 2.8 635 0.00 0.00 0.00 0.00
05/28/20 9:32:19 AM 240 0.0 8.0 44 48 81.0 80.0 29.920 7.90 2.8 638 0.00 0.00 0.00 0.00
05/28/20 9:33:25 AM 240 0.0 8.0 44 48 81.0 80.1 29.919 7.90 2.8 640 0.00 0.00 0.00 0.00
05/28/20 9:34:20 AM 239 2.0 8.0 44 48 81.1 80.2 29.920 7.90 2.9 642 0.00 0.00 0.00 0.00
05/28/20 9:35:33 AM 223 1.0 8.0 44 48 81.1 80.3 29.919 7.90 2.9 645 0.00 0.00 0.00 0.00
05/28/20 9:36:24 AM 223 1.0 8.0 44 48 81.1 80.3 29.917 7.90 2.9 649 0.00 0.00 0.00 0.00
05/28/20 9:37:34 AM 222 1.0 8.0 44 48 81.1 80.3 29.921 7.90 2.9 649 0.00 0.00 0.00 0.00
05/28/20 9:38:22 AM 222 1.0 8.0 44 47 81.1 80.4 29.920 7.90 3.0 652 0.00 0.00 0.00 0.00
05/28/20 9:39:35 AM 222 0.0 8.0 44 47 81.1 80.5 29.919 7.90 3.0 656 0.00 0.00 0.00 0.00
05/28/20 9:40:27 AM 222 1.0 8.0 44 47 81.1 80.6 29.919 7.90 3.0 657 0.00 0.00 0.00 0.00
05/28/20 9:41:21 AM 221 1.0 8.0 44 48 81.1 80.7 29.920 7.90 3.0 661 0.00 0.00 0.00 0.00
05/28/20 9:42:31 AM 205 2.0 8.0 44 47 81.1 80.9 29.917 7.90 3.1 668 0.00 0.00 0.00 0.00
05/28/20 9:43:20 AM 206 1.0 8.0 44 46 81.1 81.0 29.918 7.90 3.1 668 0.00 0.00 0.00 0.00
05/28/20 9:44:33 AM 196 1.0 8.0 44 46 81.1 81.1 29.917 7.90 3.1 671 0.00 0.00 0.00 0.00
05/28/20 9:45:27 AM 188 3.0 8.0 44 47 81.2 81.2 29.918 7.90 3.1 675 0.00 0.00 0.00 0.00
05/28/20 9:46:19 AM 188 0.0 8.0 44 46 81.2 81.2 29.917 7.90 3.2 677 0.00 0.00 0.00 0.00
05/28/20 9:47:29 AM 188 1.0 8.0 44 47 81.1 81.2 29.919 7.90 3.2 679 0.00 0.00 0.00 0.00
05/28/20 9:48:20 AM 188 0.0 8.0 44 46 81.2 81.3 29.919 7.90 3.2 682 0.00 0.00 0.00 0.00
05/28/20 9:49:30 AM 167 3.0 8.0 44 46 81.2 81.3 29.917 7.90 3.3 686 0.00 0.00 0.00 0.00
05/28/20 9:50:22 AM 167 3.0 8.0 44 46 81.2 81.4 29.919 7.90 3.3 689 0.00 0.00 0.00 0.00
05/28/20 9:51:34 AM 148 2.0 8.0 44 45 81.2 81.4 29.918 7.90 3.3 691 0.00 0.00 0.00 0.00
05/28/20 9:52:26 AM 142 1.0 8.0 44 45 81.2 81.3 29.918 7.90 3.3 694 0.00 0.00 0.00 0.00
05/28/20 9:53:17 AM 117 1.0 8.0 44 45 81.2 81.3 29.919 7.90 3.4 694 0.00 0.00 0.00 0.00
05/28/20 9:54:27 AM 115 2.0 8.0 44 45 81.3 81.3 29.917 7.90 3.4 698 0.00 0.00 0.00 0.00
05/28/20 9:55:19 AM 114 2.0 8.0 44 45 81.3 81.3 29.917 7.90 3.4 700 0.00 0.00 0.00 0.00
05/28/20 9:56:32 AM 107 1.0 8.0 44 45 81.3 81.3 29.918 7.90 3.4 703 0.00 0.00 0.00 0.00
05/28/20 9:57:23 AM 107 0.0 8.0 44 45 81.4 81.2 29.919 7.90 3.4 703 0.00 0.00 0.00 0.00
05/28/20 9:58:18 AM 103 2.0 8.0 44 45 81.3 81.3 29.918 7.90 3.4 710 0.00 0.00 0.00 0.00
05/28/20 9:59:25 AM 77 3.0 8.0 44 45 81.4 81.3 29.917 7.90 3.5 715 0.00 0.00 0.00 0.00
05/28/20 10:00:19 AM 77 1.0 8.0 44 45 81.3 81.2 29.915 7.90 3.6 717 0.00 0.00 0.00 0.00
05/28/20 10:01:29 AM 77 0.0 8.0 44 45 81.4 81.1 29.917 7.90 3.6 719 0.00 0.00 0.00 0.00
05/28/20 10:02:24 AM 35 0.0 8.0 44 45 81.4 81.1 29.917 7.90 3.7 721 0.00 0.00 0.00 0.00
05/28/20 10:03:36 AM 34 1.0 8.0 44 46 81.4 81.2 29.917 7.90 3.7 721 0.00 0.00 0.00 0.00
05/28/20 10:04:28 AM 31 2.0 8.0 44 46 81.4 81.4 29.916 7.90 3.7 728 0.00 0.00 0.00 0.00
05/28/20 10:05:35 AM 31 2.0 8.0 44 45 81.4 81.6 29.917 7.90 3.7 728 0.00 0.00 0.00 0.00
05/28/20 10:06:27 AM 112 2.0 8.0 44 46 81.4 81.8 29.913 7.90 3.8 728 0.00 0.00 0.00 0.00
05/28/20 10:07:18 AM 150 3.0 8.0 44 46 81.4 81.9 29.913 7.90 3.8 733 0.00 0.00 0.00 0.00
05/28/20 10:08:31 AM 171 4.0 8.0 44 45 81.4 82.0 29.917 7.90 3.8 735 0.00 0.00 0.00 0.00
05/28/20 10:09:23 AM 139 3.0 8.0 44 45 81.5 82.1 29.917 7.90 3.8 737 0.00 0.00 0.00 0.00
05/28/20 10:10:33 AM 139 2.0 8.0 44 45 81.5 82.2 29.913 7.90 3.9 742 0.00 0.00 0.00 0.00
05/28/20 10:11:25 AM 137 5.0 8.0 44 45 81.5 82.3 29.916 7.90 3.9 742 0.00 0.00 0.00 0.00
05/28/20 10:12:16 AM 148 3.0 8.0 44 44 81.5 82.3 29.914 7.90 3.9 744 0.00 0.00 0.00 0.00
05/28/20 10:13:29 AM 161 4.0 8.0 44 44 81.5 82.2 29.913 7.90 3.9 749 0.00 0.00 0.00 0.00
05/28/20 10:14:21 AM 161 0.0 8.0 44 43 81.5 82.1 29.911 7.90 4.0 752 0.00 0.00 0.00 0.00
05/28/20 10:15:30 AM 161 0.0 8.0 44 43 81.5 82.3 29.917 7.90 4.0 752 0.00 0.00 0.00 0.00
05/28/20 10:16:22 AM 153 2.0 8.0 44 43 81.6 82.4 29.912 7.90 4.0 756 0.00 0.00 0.00 0.00
05/28/20 10:17:35 AM 145 1.0 8.0 44 43 81.6 82.4 29.913 7.90 4.1 758 0.00 0.00 0.00 0.00
05/28/20 10:18:27 AM 144 2.0 8.0 44 43 81.6 82.4 29.913 7.90 4.1 759 0.00 0.00 0.00 0.00
05/28/20 10:19:21 AM 134 1.0 8.0 44 43 81.6 82.4 29.912 7.90 4.1 761 0.00 0.00 0.00 0.00
05/28/20 10:20:31 AM 134 1.0 8.0 44 43 81.6 82.5 29.914 7.90 4.1 763 0.00 0.00 0.00 0.00
05/28/20 10:21:19 AM 107 3.0 8.0 44 43 81.6 82.6 29.912 7.90 4.2 763 0.00 0.00 0.00 0.00
05/28/20 10:22:32 AM 107 1.0 8.0 44 43 81.6 82.6 29.911 7.90 4.2 766 0.00 0.00 0.00 0.00
05/28/20 10:23:24 AM 104 3.0 8.0 44 43 81.6 82.7 29.912 7.90 4.2 768 0.00 0.00 0.00 0.00
05/28/20 10:24:37 AM 88 2.0 8.0 44 43 81.7 82.6 29.911 7.90 4.3 770 0.00 0.00 0.00 0.00
05/28/20 10:25:28 AM 83 2.0 8.0 44 43 81.7 82.6 29.913 7.90 4.3 770 0.00 0.00 0.00 0.00
05/28/20 10:26:17 AM 84 1.0 8.0 44 43 81.6 82.6 29.911 7.90 4.3 772 0.00 0.00 0.00 0.00
05/28/20 10:27:27 AM 85 1.0 8.0 44 43 81.7 82.6 29.913 7.90 4.3 770 0.00 0.00 0.00 0.00
05/28/20 10:28:22 AM 186 4.0 8.0 44 44 81.7 82.7 29.913 7.90 4.4 770 0.00 0.00 0.00 0.00
05/28/20 10:29:31 AM 177 4.0 8.0 44 44 81.7 82.9 29.912 7.90 4.4 770 0.00 0.00 0.00 0.00
05/28/20 10:30:26 AM 177 3.0 8.0 44 43 81.7 83.0 29.909 7.90 4.4 770 0.00 0.00 0.00 0.00
05/28/20 10:31:18 AM 188 1.0 8.0 44 43 81.7 83.1 29.909 7.90 4.4 770 0.00 0.00 0.00 0.00
05/28/20 10:32:24 AM 186 1.0 8.0 44 43 81.7 83.2 29.910 7.90 4.5 773 0.00 0.00 0.00 0.00
05/28/20 10:33:16 AM 186 0.0 8.0 44 43 81.7 83.2 29.912 7.90 4.5 772 0.00 0.00 0.00 0.00
05/28/20 10:34:29 AM 196 3.0 8.0 44 43 81.8 83.3 29.912 7.90 4.6 772 0.00 0.00 0.00 0.00
05/28/20 10:35:18 AM 222 3.0 8.0 44 44 81.8 83.5 29.912 7.90 4.6 772 0.00 0.00 0.00 0.00
05/28/20 10:36:28 AM 244 2.0 8.0 44 43 81.8 83.6 29.910 7.90 4.7 772 0.00 0.00 0.00 0.00
05/28/20 10:37:35 AM 212 2.0 8.0 44 43 81.8 83.8 29.910 7.90 4.7 773 0.00 0.00 0.00 0.00
05/28/20 10:38:23 AM 205 2.0 8.0 44 42 81.8 83.9 29.910 7.90 4.7 772 0.00 0.00 0.00 0.00
05/28/20 10:39:36 AM 176 2.0 8.0 44 42 81.8 84.0 29.909 7.90 4.7 772 0.00 0.00 0.00 0.00
05/28/20 10:40:28 AM 124 0.0 8.0 44 42 81.8 84.0 29.909 7.90 4.8 770 0.00 0.00 0.00 0.00
05/28/20 10:41:19 AM 158 2.0 8.0 44 42 81.8 84.1 29.909 7.90 4.8 766 0.00 0.00 0.00 0.00
05/28/20 10:42:26 AM 158 0.0 8.0 44 42 81.8 84.2 29.911 7.90 4.8 766 0.00 0.00 0.00 0.00
05/28/20 10:43:18 AM 158 0.0 8.0 44 42 81.9 84.3 29.910 7.90 4.8 765 0.00 0.00 0.00 0.00
05/28/20 10:44:31 AM 159 0.0 8.0 44 42 81.9 84.6 29.909 7.90 4.9 766 0.00 0.00 0.00 0.00
05/28/20 10:45:25 AM 249 3.0 8.0 44 41 81.9 84.9 29.911 7.90 4.9 766 0.00 0.00 0.00 0.00
05/28/20 10:46:35 AM 248 1.0 8.0 44 40 81.9 85.2 29.908 7.90 4.9 766 0.00 0.00 0.00 0.00
05/28/20 10:47:21 AM 248 0.0 8.0 44 40 81.9 85.3 29.908 7.90 5.0 765 0.00 0.00 0.00 0.00
05/28/20 10:48:31 AM 248 0.0 8.0 44 40 81.9 85.5 29.909 7.90 5.0 766 0.00 0.00 0.00 0.00
05/28/20 10:49:22 AM 203 3.0 8.0 44 40 81.9 85.7 29.908 7.90 5.0 765 0.00 0.00 0.00 0.00
05/28/20 10:50:17 AM 200 0.0 8.0 44 40 81.9 85.8 29.910 7.90 5.0 765 0.00 0.00 0.00 0.00
05/28/20 10:51:30 AM 189 1.0 8.0 44 39 81.9 85.9 29.908 7.90 5.1 763 0.00 0.00 0.00 0.00
05/28/20 10:52:22 AM 247 2.0 8.0 44 39 82.0 86.0 29.907 7.90 5.1 765 0.00 0.00 0.00 0.00
05/28/20 10:53:29 AM 248 0.0 8.0 44 39 81.9 86.1 29.907 7.90 5.1 766 0.00 0.00 0.00 0.00
05/28/20 10:54:24 AM 245 2.0 8.0 44 39 82.0 86.3 29.909 7.90 5.1 766 0.00 0.00 0.00 0.00
05/28/20 10:55:33 AM 241 2.0 8.0 44 39 81.9 86.5 29.905 7.90 5.2 766 0.00 0.00 0.00 0.00
05/28/20 10:56:22 AM 238 0.0 8.0 44 39 82.0 86.6 29.908 7.90 5.2 770 0.00 0.00 0.00 0.00
05/28/20 10:57:35 AM 164 2.0 8.0 44 39 82.0 86.7 29.909 7.90 5.2 773 0.00 0.00 0.00 0.00
05/28/20 10:58:21 AM 163 2.0 8.0 44 39 82.0 86.7 29.906 7.90 5.2 773 0.00 0.00 0.00 0.00
05/28/20 10:59:34 AM 115 1.0 8.0 44 38 82.0 86.8 29.908 7.90 5.3 773 0.00 0.00 0.00 0.00
05/28/20 11:00:28 AM 206 3.0 8.0 44 38 82.1 86.9 29.907 7.90 5.3 773 0.00 0.00 0.00 0.00
05/28/20 11:01:17 AM 244 4.0 8.0 44 41 82.0 87.2 29.905 7.90 5.3 775 0.00 0.00 0.00 0.00
05/28/20 11:02:30 AM 238 6.0 8.0 44 39 82.1 87.3 29.907 7.90 5.3 777 0.00 0.00 0.00 0.00
05/28/20 11:03:18 AM 244 2.0 8.0 44 38 82.1 87.5 29.907 7.90 5.3 780 0.00 0.00 0.00 0.00
05/28/20 11:04:32 AM 233 3.0 8.0 44 39 82.1 87.6 29.906 7.90 5.3 782 0.00 0.00 0.00 0.00
05/28/20 11:05:23 AM 245 2.0 8.0 44 38 82.1 87.6 29.908 7.90 5.4 784 0.00 0.00 0.00 0.00
05/28/20 11:06:36 AM 259 3.0 8.0 44 37 82.1 87.7 29.908 7.90 5.4 786 0.00 0.00 0.00 0.00
05/28/20 11:07:28 AM 232 3.0 8.0 44 38 82.1 87.7 29.906 7.90 5.4 788 0.00 0.00 0.00 0.00
05/28/20 11:08:19 AM 240 2.0 8.0 44 38 82.1 87.8 29.906 7.90 5.5 791 0.00 0.00 0.00 0.00
05/28/20 11:09:29 AM 238 0.0 8.0 44 38 82.2 87.9 29.906 7.90 5.5 795 0.00 0.00 0.00 0.00
05/28/20 11:10:21 AM 238 3.0 8.0 44 38 82.1 87.9 29.903 7.90 5.5 796 0.00 0.00 0.00 0.00
05/28/20 11:11:31 AM 236 2.0 8.0 44 37 82.2 88.0 29.907 7.90 5.5 802 0.00 0.00 0.00 0.00
05/28/20 11:12:26 AM 231 1.0 8.0 44 37 82.2 88.0 29.904 7.90 5.5 802 0.00 0.00 0.00 0.00
05/28/20 11:13:17 AM 192 1.0 8.0 44 37 82.2 88.0 29.905 7.90 5.5 803 0.00 0.00 0.00 0.00
05/28/20 11:14:27 AM 190 1.0 8.0 44 37 82.2 88.0 29.905 7.90 5.6 810 0.00 0.00 0.00 0.00
05/28/20 11:15:22 AM 189 0.0 8.0 44 37 82.2 87.9 29.905 7.90 5.6 810 0.00 0.00 0.00 0.00
05/28/20 11:16:32 AM 110 2.0 8.0 44 37 82.2 88.0 29.907 7.90 5.6 816 0.00 0.00 0.00 0.00
05/28/20 11:17:24 AM 155 3.0 8.0 44 37 82.2 88.0 29.907 7.90 5.7 819 0.00 0.00 0.00 0.00
05/28/20 11:18:16 AM 201 4.0 8.0 44 37 82.2 88.0 29.905 7.90 5.7 819 0.00 0.00 0.00 0.00
05/28/20 11:19:26 AM 164 4.0 8.0 44 38 82.2 88.1 29.907 7.90 5.7 826 0.00 0.00 0.00 0.00
05/28/20 11:20:17 AM 165 4.0 8.0 44 37 82.2 88.1 29.909 7.90 5.7 831 0.00 0.00 0.00 0.00
05/28/20 11:21:30 AM 155 4.0 8.0 44 37 82.2 88.0 29.908 7.90 5.7 833 0.00 0.00 0.00 0.00
05/28/20 11:22:22 AM 162 4.0 8.0 44 38 82.3 87.9 29.907 7.90 5.7 835 0.00 0.00 0.00 0.00
05/28/20 11:23:17 AM 173 5.0 8.0 44 38 82.2 87.9 29.909 7.90 5.7 838 0.00 0.00 0.00 0.00
05/28/20 11:24:30 AM 175 3.0 8.0 44 37 82.3 88.0 29.908 7.90 5.8 844 0.00 0.00 0.00 0.00
05/28/20 11:25:19 AM 150 3.0 8.0 44 37 82.3 87.9 29.908 7.90 5.8 847 0.00 0.00 0.00 0.00
05/28/20 11:26:32 AM 150 1.0 8.0 44 37 82.3 87.8 29.908 7.90 5.8 849 0.00 0.00 0.00 0.00
05/28/20 11:27:23 AM 155 1.0 8.0 44 37 82.3 87.9 29.908 7.90 5.8 849 0.00 0.00 0.00 0.00
05/28/20 11:28:36 AM 241 2.0 8.0 44 38 82.3 88.1 29.909 7.90 5.8 856 0.00 0.00 0.00 0.00
05/28/20 11:29:28 AM 221 5.0 8.0 44 37 82.3 88.3 29.906 7.90 5.8 861 0.00 0.00 0.00 0.00
05/28/20 11:30:17 AM 227 3.0 8.0 44 37 82.3 88.5 29.905 7.90 5.9 863 0.00 0.00 0.00 0.00
05/28/20 11:31:30 AM 240 2.0 8.0 44 36 82.3 88.7 29.906 7.90 5.9 863 0.00 0.00 0.00 0.00
05/28/20 11:32:22 AM 232 4.0 8.0 44 36 82.3 88.8 29.905 7.90 5.9 870 0.00 0.00 0.00 0.00
05/28/20 11:33:35 AM 205 2.0 8.0 44 36 82.3 88.9 29.904 7.90 5.9 874 0.00 0.00 0.00 0.00
05/28/20 11:34:26 AM 207 4.0 8.0 44 35 82.3 89.0 29.906 7.90 6.0 877 0.00 0.00 0.00 0.00
05/28/20 11:35:18 AM 206 2.0 8.0 44 34 82.4 89.0 29.905 7.90 6.0 877 0.00 0.00 0.00 0.00
05/28/20 11:36:28 AM 193 4.0 8.0 44 35 82.4 89.0 29.905 7.90 6.0 882 0.00 0.00 0.00 0.00
05/28/20 11:37:20 AM 185 1.0 8.0 44 35 82.4 89.0 29.905 7.90 6.0 886 0.00 0.00 0.00 0.00
05/28/20 11:38:33 AM 185 1.0 8.0 44 35 82.4 89.0 29.907 7.90 6.0 886 0.00 0.00 0.00 0.00
05/28/20 11:39:24 AM 185 1.0 8.0 44 36 82.5 89.0 29.905 7.90 6.0 889 0.00 0.00 0.00 0.00
05/28/20 11:40:16 AM 129 3.0 8.0 44 34 82.4 89.2 29.905 7.90 6.0 889 0.00 0.00 0.00 0.00
05/28/20 11:41:26 AM 127 1.0 8.0 44 34 82.4 89.1 29.905 7.90 6.0 891 0.00 0.00 0.00 0.00
05/28/20 11:42:18 AM 206 4.0 8.0 44 35 82.4 89.2 29.908 7.90 6.0 893 0.00 0.00 0.00 0.00
05/28/20 11:43:28 AM 161 2.0 8.0 44 34 82.4 89.4 29.906 7.90 6.0 900 0.00 0.00 0.00 0.00
05/28/20 11:44:23 AM 183 4.0 8.0 44 35 82.5 89.5 29.905 7.90 6.1 902 0.00 0.00 0.00 0.00
05/28/20 11:45:36 AM 217 6.0 8.0 44 37 82.5 89.8 29.904 7.90 6.1 905 0.00 0.00 0.00 0.00
05/28/20 11:46:25 AM 217 5.0 8.0 44 36 82.5 89.9 29.905 7.90 6.1 907 0.00 0.00 0.00 0.00
05/28/20 11:47:17 AM 224 4.0 8.0 44 35 82.5 90.0 29.906 7.90 6.1 909 0.00 0.00 0.00 0.00
05/28/20 11:48:30 AM 216 5.0 8.0 44 34 82.5 90.1 29.905 7.90 6.2 912 0.00 0.00 0.00 0.00
05/28/20 11:49:21 AM 323 5.0 8.0 44 33 82.5 90.1 29.905 7.90 6.2 914 0.00 0.00 0.00 0.00
05/28/20 11:50:34 AM 302 2.0 8.0 44 34 82.5 90.0 29.905 7.90 6.2 914 0.00 0.00 0.00 0.00
05/28/20 11:51:26 AM 302 2.0 8.0 44 34 82.5 90.0 29.905 7.90 6.2 914 0.00 0.00 0.00 0.00
05/28/20 11:52:33 AM 270 2.0 8.0 44 34 82.6 90.0 29.906 7.90 6.2 919 0.00 0.00 0.00 0.00
05/28/20 11:53:28 AM 270 1.0 8.0 44 35 82.5 90.2 29.905 7.90 6.3 919 0.00 0.00 0.00 0.00
05/28/20 11:54:20 AM 212 7.0 8.0 44 35 82.6 90.4 29.905 7.90 6.3 923 0.00 0.00 0.00 0.00
05/28/20 11:55:33 AM 200 4.0 8.0 44 32 82.6 90.5 29.904 7.90 6.3 923 0.00 0.00 0.00 0.00
05/28/20 11:56:25 AM 189 6.0 8.0 44 33 82.6 90.5 29.904 7.90 6.3 925 0.00 0.00 0.00 0.00
05/28/20 11:57:35 AM 219 5.0 8.0 44 32 82.6 90.4 29.905 7.90 6.3 926 0.00 0.00 0.00 0.00
05/28/20 11:58:27 AM 248 3.0 8.0 44 33 82.6 90.4 29.902 7.90 6.3 926 0.00 0.00 0.00 0.00
05/28/20 11:59:18 AM 237 5.0 8.0 44 32 82.6 90.4 29.905 7.90 6.3 926 0.00 0.00 0.00 0.00
05/28/20 12:00:35 PM 246 5.0 8.0 44 33 82.6 90.4 29.905 7.90 6.3 928 0.00 0.00 0.00 0.00
05/28/20 12:01:26 PM 238 4.0 8.0 44 33 82.7 90.4 29.904 7.90 6.3 930 0.00 0.00 0.00 0.00
05/28/20 12:02:18 PM 269 3.0 8.0 44 32 82.6 90.4 29.904 7.90 6.3 932 0.00 0.00 0.00 0.00
05/28/20 12:03:25 PM 247 4.0 8.0 44 33 82.7 90.4 29.903 7.90 6.3 932 0.00 0.00 0.00 0.00
05/28/20 12:04:20 PM 238 3.0 8.0 44 33 82.7 90.4 29.905 7.90 6.3 932 0.00 0.00 0.00 0.00
05/28/20 12:05:33 PM 217 5.0 8.0 44 32 82.7 90.5 29.904 7.90 6.4 933 0.00 0.00 0.00 0.00
05/28/20 12:06:25 PM 219 3.0 8.0 44 32 82.7 90.4 29.905 7.90 6.4 937 0.00 0.00 0.00 0.00
05/28/20 12:07:17 PM 219 2.0 8.0 44 32 82.7 90.3 29.905 7.90 6.4 937 0.00 0.00 0.00 0.00
05/28/20 12:08:27 PM 183 2.0 8.0 44 33 82.6 90.3 29.903 7.90 6.4 939 0.00 0.00 0.00 0.00
05/28/20 12:09:18 PM 173 1.0 8.0 44 33 82.7 90.4 29.907 7.90 6.4 940 0.00 0.00 0.00 0.00
05/28/20 12:10:31 PM 81 2.0 8.0 44 32 82.7 90.4 29.903 7.90 6.4 940 0.00 0.00 0.00 0.00
05/28/20 12:11:23 PM 80 0.0 8.0 44 32 82.7 90.4 29.906 7.90 6.4 942 0.00 0.00 0.00 0.00
05/28/20 12:12:36 PM 202 3.0 8.0 44 33 82.7 90.6 29.908 7.90 6.4 942 0.00 0.00 0.00 0.00
05/28/20 12:13:25 PM 195 0.0 8.0 44 32 82.8 90.7 29.905 7.90 6.5 944 0.00 0.00 0.00 0.00
05/28/20 12:14:16 PM 184 1.0 8.0 44 32 82.7 90.7 29.905 7.90 6.5 944 0.00 0.00 0.00 0.00
05/28/20 12:15:30 PM 232 4.0 8.0 44 33 82.7 90.8 29.908 7.90 6.5 944 0.00 0.00 0.00 0.00
05/28/20 12:16:21 PM 245 4.0 8.0 44 33 82.8 90.9 29.905 7.90 6.5 944 0.00 0.00 0.00 0.00
05/28/20 12:17:34 PM 170 2.0 8.0 44 33 82.7 91.0 29.907 7.90 6.5 944 0.00 0.00 0.00 0.00
05/28/20 12:18:26 PM 232 4.0 8.0 44 32 82.7 91.0 29.908 7.90 6.4 944 0.00 0.00 0.00 0.00
05/28/20 12:19:33 PM 286 6.0 9.0 44 32 82.8 91.1 29.908 7.90 6.4 942 0.00 0.00 0.00 0.00
05/28/20 12:20:28 PM 296 5.0 9.0 44 33 82.8 91.1 29.909 7.90 6.5 944 0.00 0.00 0.00 0.00
05/28/20 12:21:20 PM 312 5.0 9.0 44 33 82.8 91.1 29.908 7.90 6.5 944 0.00 0.00 0.00 0.00
05/28/20 12:22:33 PM 252 4.0 9.0 44 32 82.8 91.0 29.908 7.90 6.5 946 0.00 0.00 0.00 0.00
05/28/20 12:23:25 PM 239 1.0 9.0 44 33 82.8 91.0 29.907 7.90 6.4 944 0.00 0.00 0.00 0.00
05/28/20 12:24:35 PM 227 6.0 9.0 44 34 82.8 91.1 29.909 7.90 6.4 940 0.00 0.00 0.00 0.00
05/28/20 12:25:26 PM 190 8.0 12.0 44 34 82.9 91.2 29.908 7.90 6.4 940 0.00 0.00 0.00 0.00
05/28/20 12:26:18 PM 271 4.0 12.0 44 35 82.8 91.2 29.908 7.90 6.4 939 0.00 0.00 0.00 0.00
05/28/20 12:27:31 PM 228 4.0 12.0 44 33 82.8 91.2 29.909 7.90 6.4 939 0.00 0.00 0.00 0.00
05/28/20 12:28:23 PM 216 7.0 12.0 44 34 82.9 91.2 29.907 7.90 6.4 939 0.00 0.00 0.00 0.00
05/28/20 12:29:15 PM 236 5.0 12.0 44 34 82.9 91.3 29.907 7.90 6.4 942 0.00 0.00 0.00 0.00
05/28/20 12:30:25 PM 192 7.0 12.0 44 35 82.9 91.3 29.908 7.90 6.4 940 0.00 0.00 0.00 0.00
05/28/20 12:31:17 PM 200 6.0 12.0 44 35 82.9 91.3 29.908 7.90 6.4 942 0.00 0.00 0.00 0.00
05/28/20 12:32:30 PM 210 11.0 12.0 44 34 82.9 91.3 29.906 7.90 6.4 942 0.00 0.00 0.00 0.00
05/28/20 12:33:22 PM 216 12.0 12.0 44 33 82.9 91.3 29.908 7.90 6.4 944 0.00 0.00 0.00 0.00
05/28/20 12:34:35 PM 214 4.0 12.0 44 33 83.0 91.1 29.908 7.90 6.4 944 0.00 0.00 0.00 0.00
05/28/20 12:35:24 PM 209 4.0 12.0 44 33 82.9 91.1 29.910 7.90 6.4 944 0.00 0.00 0.00 0.00
05/28/20 12:36:37 PM 206 5.0 12.0 44 34 83.0 90.9 29.908 7.90 6.4 946 0.00 0.00 0.00 0.00
05/28/20 12:37:29 PM 185 8.0 12.0 44 34 83.0 90.9 29.907 7.90 6.4 944 0.00 0.00 0.00 0.00
05/28/20 12:38:20 PM 184 7.0 12.0 44 33 83.0 90.8 29.907 7.90 6.4 946 0.00 0.00 0.00 0.00
05/28/20 12:39:34 PM 169 9.0 12.0 44 34 83.0 90.6 29.909 7.90 6.4 944 0.00 0.00 0.00 0.00
05/28/20 12:40:22 PM 215 6.0 12.0 44 34 83.0 90.5 29.909 7.90 6.4 946 0.00 0.00 0.00 0.00
05/28/20 12:41:35 PM 207 4.0 12.0 44 33 83.0 90.4 29.910 7.90 6.4 946 0.00 0.00 0.00 0.00
05/28/20 12:42:27 PM 268 6.0 12.0 44 34 83.0 90.4 29.908 7.90 6.4 946 0.00 0.00 0.00 0.00
05/28/20 12:43:22 PM 212 7.0 12.0 44 35 83.0 90.5 29.907 7.90 6.4 944 0.00 0.00 0.00 0.00
05/28/20 12:44:32 PM 221 6.0 12.0 44 34 83.0 90.6 29.908 7.90 6.5 946 0.00 0.00 0.00 0.00
05/28/20 12:45:27 PM 225 8.0 12.0 44 36 83.0 90.8 29.909 7.90 6.5 946 0.00 0.00 0.00 0.00
05/28/20 12:46:34 PM 234 4.0 12.0 44 33 83.0 90.9 29.909 7.90 6.4 946 0.00 0.00 0.00 0.00
05/28/20 12:47:26 PM 250 3.0 12.0 44 33 83.1 90.9 29.907 7.90 6.4 946 0.00 0.00 0.00 0.00
05/28/20 12:48:17 PM 253 4.0 12.0 44 34 83.0 90.9 29.907 7.90 6.4 947 0.00 0.00 0.00 0.00
05/28/20 12:49:31 PM 252 1.0 12.0 44 33 83.1 90.9 29.908 7.90 6.4 949 0.00 0.00 0.00 0.00
05/28/20 12:50:23 PM 225 6.0 12.0 44 33 83.1 91.0 29.906 7.90 6.4 947 0.00 0.00 0.00 0.00
05/28/20 12:51:33 PM 230 5.0 12.0 44 33 83.1 91.0 29.909 7.90 6.4 947 0.00 0.00 0.00 0.00
05/28/20 12:52:25 PM 211 1.0 12.0 44 33 83.1 91.0 29.909 7.90 6.5 946 0.00 0.00 0.00 0.00
05/28/20 12:53:16 PM 256 1.0 12.0 44 33 83.1 91.1 29.908 7.90 6.4 947 0.00 0.00 0.00 0.00
05/28/20 12:54:29 PM 234 4.0 12.0 44 33 83.1 91.3 29.907 7.90 6.4 946 0.00 0.00 0.00 0.00
05/28/20 12:55:24 PM 242 5.0 12.0 44 33 83.2 91.5 29.909 7.90 6.4 947 0.00 0.00 0.00 0.00
05/28/20 12:56:31 PM 235 4.0 12.0 44 32 83.2 91.6 29.909 7.90 6.4 944 0.00 0.00 0.00 0.00
05/28/20 12:57:26 PM 229 2.0 12.0 44 32 83.1 91.6 29.909 7.90 6.4 942 0.00 0.00 0.00 0.00
05/28/20 12:58:15 PM 250 4.0 12.0 44 32 83.1 91.7 29.909 7.90 6.4 942 0.00 0.00 0.00 0.00
05/28/20 12:59:28 PM 169 7.0 12.0 44 32 83.1 91.6 29.909 7.90 6.4 946 0.00 0.00 0.00 0.00
05/28/20 1:00:26 PM 229 2.0 12.0 44 33 83.2 91.6 29.907 7.90 6.4 947 0.00 0.00 0.00 0.00
05/28/20 1:01:18 PM 223 5.0 12.0 44 33 83.2 91.7 29.907 7.90 6.4 946 0.00 0.00 0.00 0.00
05/28/20 1:02:25 PM 238 3.0 12.0 44 33 83.2 91.6 29.908 7.90 6.4 947 0.00 0.00 0.00 0.00
05/28/20 1:03:20 PM 220 5.0 12.0 44 34 83.2 91.7 29.905 7.90 6.4 947 0.00 0.00 0.00 0.00
05/28/20 1:04:30 PM 255 3.0 12.0 44 33 83.2 91.7 29.907 7.90 6.4 947 0.00 0.00 0.00 0.00
05/28/20 1:05:25 PM 197 6.0 12.0 44 33 83.2 91.8 29.907 7.90 6.4 949 0.00 0.00 0.00 0.00
05/28/20 1:06:17 PM 254 7.0 12.0 44 32 83.2 91.9 29.906 7.90 6.5 951 0.00 0.00 0.00 0.00
05/28/20 1:07:24 PM 260 6.0 12.0 44 33 83.2 91.9 29.906 7.90 6.5 953 0.00 0.00 0.00 0.00
05/28/20 1:08:19 PM 238 3.0 12.0 44 33 83.2 92.0 29.903 7.90 6.4 949 0.00 0.00 0.00 0.00
05/28/20 1:09:29 PM 202 3.0 12.0 44 33 83.2 92.1 29.903 7.90 6.4 947 0.00 0.00 0.00 0.00
05/28/20 1:10:24 PM 211 5.0 12.0 44 32 83.2 92.1 29.906 7.90 6.4 946 0.00 0.00 0.00 0.00
05/28/20 1:11:37 PM 193 5.0 12.0 44 32 83.2 92.0 29.902 7.90 6.4 942 0.00 0.00 0.00 0.00
05/28/20 1:12:29 PM 257 3.0 12.0 44 33 83.3 92.0 29.905 7.90 6.3 942 0.00 0.00 0.00 0.00
05/28/20 1:13:18 PM 192 7.0 12.0 44 32 83.2 92.0 29.902 7.90 6.3 942 0.00 0.00 0.00 0.00
05/28/20 1:14:31 PM 157 5.0 12.0 44 32 83.3 91.8 29.904 7.90 6.3 944 0.00 0.00 0.00 0.00
05/28/20 1:15:23 PM 167 4.0 12.0 44 32 83.3 91.7 29.900 7.90 6.3 944 0.00 0.00 0.00 0.00
05/28/20 1:16:18 PM 232 4.0 12.0 44 33 83.3 91.6 29.900 7.90 6.3 940 0.00 0.00 0.00 0.00
05/28/20 1:17:31 PM 216 8.0 12.0 44 33 83.3 91.6 29.902 7.90 6.3 944 0.00 0.00 0.00 0.00
05/28/20 1:18:20 PM 239 8.0 12.0 44 34 83.3 91.7 29.903 7.90 6.3 944 0.00 0.00 0.00 0.00
05/28/20 1:19:30 PM 216 9.0 12.0 44 33 83.3 91.7 29.903 7.90 6.3 944 0.00 0.00 0.00 0.00
05/28/20 1:20:22 PM 190 5.0 12.0 44 33 83.3 91.7 29.900 7.90 6.2 942 0.00 0.00 0.00 0.00
05/28/20 1:21:35 PM 216 7.0 12.0 44 33 83.3 91.7 29.903 7.90 6.2 940 0.00 0.00 0.00 0.00
05/28/20 1:22:27 PM 219 0.0 12.0 44 32 83.3 91.7 29.903 7.90 6.2 940 0.00 0.00 0.00 0.00
05/28/20 1:23:19 PM 274 4.0 12.0 44 32 83.3 91.6 29.902 7.90 6.2 940 0.00 0.00 0.00 0.00
05/28/20 1:24:29 PM 288 3.0 12.0 44 32 83.4 91.7 29.903 7.90 6.2 940 0.00 0.00 0.00 0.00
05/28/20 1:25:21 PM 287 1.0 12.0 44 32 83.4 91.6 29.902 7.90 6.2 935 0.00 0.00 0.00 0.00
05/28/20 1:26:34 PM 207 4.0 12.0 44 32 83.4 91.8 29.903 7.90 6.2 937 0.00 0.00 0.00 0.00
05/28/20 1:27:29 PM 219 8.0 13.0 44 32 83.4 91.8 29.900 7.90 6.2 937 0.00 0.00 0.00 0.00
05/28/20 1:28:21 PM 221 4.0 13.0 44 32 83.4 91.8 29.904 7.90 6.2 937 0.00 0.00 0.00 0.00
05/28/20 1:29:28 PM 177 2.0 13.0 44 32 83.4 91.9 29.903 7.90 6.2 935 0.00 0.00 0.00 0.00
05/28/20 1:30:23 PM 244 5.0 13.0 44 32 83.4 91.9 29.902 7.90 6.2 935 0.00 0.00 0.00 0.00
05/28/20 1:31:33 PM 260 6.0 13.0 44 33 83.4 91.9 29.903 7.90 6.1 935 0.00 0.00 0.00 0.00
05/28/20 1:32:25 PM 255 8.0 13.0 44 33 83.4 92.0 29.904 7.90 6.1 933 0.00 0.00 0.00 0.00
05/28/20 1:33:20 PM 272 2.0 13.0 44 32 83.4 92.0 29.900 7.90 6.1 933 0.00 0.00 0.00 0.00
05/28/20 1:34:26 PM 220 6.0 13.0 44 32 83.4 92.0 29.902 7.90 6.1 933 0.00 0.00 0.00 0.00
05/28/20 1:35:19 PM 221 4.0 13.0 44 32 83.5 92.0 29.904 7.90 6.1 933 0.00 0.00 0.00 0.00
05/28/20 1:36:32 PM 231 6.0 13.0 44 33 83.4 92.1 29.903 7.90 6.1 930 0.00 0.00 0.00 0.00
05/28/20 1:37:24 PM 250 8.0 13.0 44 32 83.5 92.1 29.903 7.90 6.0 928 0.00 0.00 0.00 0.00
05/28/20 1:38:19 PM 267 4.0 13.0 44 32 83.5 92.1 29.903 7.90 6.0 928 0.00 0.00 0.00 0.00
05/28/20 1:39:29 PM 241 6.0 13.0 44 32 83.5 92.2 29.902 7.90 6.0 928 0.00 0.00 0.00 0.00
05/28/20 1:40:21 PM 225 6.0 13.0 44 31 83.5 92.2 29.903 7.90 6.0 928 0.00 0.00 0.00 0.00
05/28/20 1:41:31 PM 226 7.0 13.0 44 32 83.5 92.2 29.900 7.90 6.0 925 0.00 0.00 0.00 0.00
05/28/20 1:42:26 PM 205 3.0 13.0 44 31 83.5 92.2 29.899 7.90 6.0 925 0.00 0.00 0.00 0.00
05/28/20 1:43:18 PM 196 1.0 13.0 44 31 83.5 92.2 29.899 7.90 6.0 925 0.00 0.00 0.00 0.00
05/28/20 1:44:31 PM 209 4.0 13.0 44 33 83.5 92.2 29.902 7.90 6.0 928 0.00 0.00 0.00 0.00
05/28/20 1:45:20 PM 244 3.0 13.0 44 32 83.5 92.3 29.902 7.90 6.0 926 0.00 0.00 0.00 0.00
05/28/20 1:46:30 PM 209 8.0 13.0 44 33 83.5 92.5 29.902 7.90 5.9 926 0.00 0.00 0.00 0.00
05/28/20 1:47:22 PM 248 9.0 13.0 44 32 83.6 92.5 29.902 7.90 5.9 923 0.00 0.00 0.00 0.00
05/28/20 1:48:35 PM 252 7.0 13.0 44 32 83.6 92.4 29.902 7.90 5.9 923 0.00 0.00 0.00 0.00
05/28/20 1:49:27 PM 269 3.0 13.0 44 33 83.6 92.5 29.903 7.90 5.9 921 0.00 0.00 0.00 0.00
05/28/20 1:50:19 PM 270 3.0 13.0 44 32 83.5 92.5 29.903 7.90 5.9 923 0.00 0.00 0.00 0.00
05/28/20 1:51:29 PM 259 2.0 13.0 44 32 83.6 92.6 29.903 7.90 5.8 923 0.00 0.00 0.00 0.00
05/28/20 1:52:21 PM 247 2.0 13.0 44 32 83.6 92.7 29.901 7.90 5.8 916 0.00 0.00 0.00 0.00
05/28/20 1:53:35 PM 257 5.0 13.0 44 33 83.6 92.9 29.901 7.90 5.8 914 0.00 0.00 0.00 0.00
05/28/20 1:54:27 PM 246 4.0 13.0 44 33 83.6 92.9 29.903 7.90 5.8 914 0.00 0.00 0.00 0.00
05/28/20 1:55:18 PM 253 8.0 13.0 44 32 83.6 93.0 29.902 7.90 5.8 914 0.00 0.00 0.00 0.00
05/28/20 1:56:29 PM 227 5.0 13.0 44 33 83.6 93.0 29.903 7.90 5.7 911 0.00 0.00 0.00 0.00
05/28/20 1:57:21 PM 184 4.0 13.0 44 32 83.6 93.0 29.900 7.90 5.7 911 0.00 0.00 0.00 0.00
05/28/20 1:58:31 PM 214 5.0 13.0 44 31 83.6 92.8 29.900 7.90 5.7 909 0.00 0.00 0.00 0.00
05/28/20 1:59:26 PM 200 2.0 13.0 44 32 83.6 92.8 29.899 7.90 5.7 909 0.00 0.00 0.00 0.00
05/28/20 2:00:18 PM 202 6.0 13.0 44 33 83.7 92.7 29.900 7.90 5.6 905 0.00 0.00 0.00 0.00
05/28/20 2:01:25 PM 215 4.0 13.0 44 33 83.6 92.7 29.899 7.90 5.6 905 0.00 0.00 0.00 0.00
05/28/20 2:02:20 PM 226 8.0 13.0 44 33 83.7 92.6 29.901 7.90 5.6 907 0.00 0.00 0.00 0.00
05/28/20 2:03:33 PM 219 7.0 13.0 44 34 83.7 92.7 29.899 7.90 5.6 909 0.00 0.00 0.00 0.00
05/28/20 2:04:25 PM 223 6.0 13.0 44 34 83.7 92.8 29.900 7.90 5.6 911 0.00 0.00 0.00 0.00
05/28/20 2:05:17 PM 243 5.0 13.0 44 33 83.7 92.8 29.900 7.90 5.6 907 0.00 0.00 0.00 0.00
05/28/20 2:06:31 PM 273 3.0 13.0 44 33 83.7 92.9 29.901 7.90 5.5 902 0.00 0.00 0.00 0.00
05/28/20 2:07:20 PM 211 7.0 13.0 44 33 83.7 93.0 29.902 7.90 5.5 895 0.00 0.00 0.00 0.00
05/28/20 2:08:33 PM 229 7.0 13.0 44 33 83.7 93.1 29.901 7.90 5.4 891 0.00 0.00 0.00 0.00
05/28/20 2:09:25 PM 212 5.0 13.0 44 34 83.7 93.2 29.900 7.90 5.4 891 0.00 0.00 0.00 0.00
05/28/20 2:10:17 PM 240 4.0 13.0 44 34 83.7 93.3 29.900 7.90 5.4 889 0.00 0.00 0.00 0.00
05/28/20 2:11:30 PM 224 8.0 13.0 44 33 83.8 93.4 29.900 7.90 5.4 891 0.00 0.00 0.00 0.00
05/28/20 2:12:19 PM 209 8.0 13.0 44 33 83.8 93.4 29.900 7.90 5.4 891 0.00 0.00 0.00 0.00
05/28/20 2:13:29 PM 242 6.0 13.0 44 32 83.7 93.3 29.900 7.90 5.4 895 0.00 0.00 0.00 0.00
05/28/20 2:14:21 PM 288 3.0 13.0 44 32 83.8 93.2 29.898 7.90 5.4 891 0.00 0.00 0.00 0.00
05/28/20 2:15:37 PM 198 7.0 13.0 44 33 83.7 93.1 29.902 7.90 5.3 886 0.00 0.00 0.00 0.00
05/28/20 2:16:29 PM 229 5.0 13.0 44 33 83.8 93.0 29.901 7.90 5.3 884 0.00 0.00 0.00 0.00
05/28/20 2:17:21 PM 247 7.0 13.0 44 33 83.8 93.0 29.900 7.90 5.2 881 0.00 0.00 0.00 0.00
05/28/20 2:18:29 PM 249 9.0 13.0 44 33 83.8 92.9 29.899 7.90 5.2 881 0.00 0.00 0.00 0.00
05/28/20 2:19:24 PM 260 8.0 13.0 44 33 83.8 92.9 29.900 7.90 5.2 881 0.00 0.00 0.00 0.00
05/28/20 2:20:37 PM 262 4.0 13.0 44 33 83.8 92.7 29.900 7.90 5.2 879 0.00 0.00 0.00 0.00
05/28/20 2:21:29 PM 252 12.0 13.0 44 33 83.8 92.7 29.900 7.90 5.2 874 0.00 0.00 0.00 0.00
05/28/20 2:22:21 PM 223 8.0 13.0 44 33 83.9 92.6 29.897 7.90 5.1 874 0.00 0.00 0.00 0.00
05/28/20 2:23:29 PM 228 8.0 13.0 44 34 83.8 92.6 29.899 7.90 5.1 874 0.00 0.00 0.00 0.00
05/28/20 2:24:21 PM 238 8.0 13.0 44 33 83.8 92.6 29.899 7.90 5.1 872 0.00 0.00 0.00 0.00
05/28/20 2:25:34 PM 244 8.0 13.0 44 33 83.9 92.4 29.899 7.90 5.1 874 0.00 0.00 0.00 0.00
05/28/20 2:26:26 PM 240 8.0 13.0 44 34 83.9 92.3 29.899 7.90 5.1 874 0.00 0.00 0.00 0.00
05/28/20 2:27:18 PM 254 2.0 13.0 44 33 83.9 92.3 29.896 7.90 5.1 874 0.00 0.00 0.00 0.00
05/28/20 2:28:28 PM 219 5.0 13.0 44 33 83.8 92.2 29.896 7.90 5.0 870 0.00 0.00 0.00 0.00
05/28/20 2:29:20 PM 184 5.0 13.0 44 33 83.9 92.2 29.898 7.90 5.0 863 0.00 0.00 0.00 0.00
05/28/20 2:30:34 PM 250 1.0 13.0 44 34 83.9 92.2 29.898 7.90 4.9 860 0.00 0.00 0.00 0.00
05/28/20 2:31:26 PM 257 4.0 13.0 44 34 83.9 92.3 29.897 7.90 4.9 856 0.00 0.00 0.00 0.00
05/28/20 2:32:21 PM 240 5.0 13.0 44 34 83.9 92.3 29.897 7.90 4.9 854 0.00 0.00 0.00 0.00
05/28/20 2:33:34 PM 250 2.0 13.0 44 33 83.9 92.4 29.898 7.90 4.8 856 0.00 0.00 0.00 0.00
05/28/20 2:34:20 PM 206 3.0 13.0 44 34 83.9 92.5 29.897 7.90 4.8 856 0.00 0.00 0.00 0.00
05/28/20 2:35:33 PM 219 3.0 13.0 44 34 84.0 92.6 29.897 7.90 4.8 854 0.00 0.00 0.00 0.00
05/28/20 2:36:25 PM 255 9.0 13.0 44 34 83.9 92.6 29.898 7.90 4.8 853 0.00 0.00 0.00 0.00
05/28/20 2:37:20 PM 279 2.0 13.0 44 34 84.0 92.7 29.898 7.90 4.8 851 0.00 0.00 0.00 0.00
05/28/20 2:38:31 PM 286 7.0 13.0 44 33 84.0 92.6 29.897 7.90 4.8 851 0.00 0.00 0.00 0.00
05/28/20 2:39:20 PM 220 6.0 13.0 44 34 84.0 92.6 29.897 7.90 4.7 847 0.00 0.00 0.00 0.00
05/28/20 2:40:33 PM 263 4.0 13.0 44 35 84.0 92.6 29.896 7.90 4.7 847 0.00 0.00 0.00 0.00
05/28/20 2:41:25 PM 208 7.0 13.0 44 35 84.0 92.7 29.897 7.90 4.7 840 0.00 0.00 0.00 0.00
05/28/20 2:42:17 PM 235 5.0 13.0 44 35 84.0 92.8 29.896 7.90 4.6 840 0.00 0.00 0.00 0.00
05/28/20 2:43:31 PM 309 7.0 13.0 44 34 84.0 92.8 29.895 7.90 4.6 838 0.00 0.00 0.00 0.00
05/28/20 2:44:23 PM 264 4.0 13.0 44 34 84.0 92.8 29.896 7.90 4.6 840 0.00 0.00 0.00 0.00
05/28/20 2:45:33 PM 235 7.0 13.0 44 34 84.1 92.8 29.897 7.90 4.6 838 0.00 0.00 0.00 0.00
05/28/20 2:46:25 PM 215 10.0 13.0 44 34 84.1 92.8 29.897 7.90 4.6 838 0.00 0.00 0.00 0.00
05/28/20 2:47:17 PM 232 12.0 13.0 44 34 84.1 92.8 29.897 7.90 4.6 837 0.00 0.00 0.00 0.00
05/28/20 2:48:30 PM 207 12.0 14.0 44 34 84.0 92.6 29.898 7.90 4.5 837 0.00 0.00 0.00 0.00
05/28/20 2:49:22 PM 211 8.0 14.0 44 34 84.1 92.5 29.898 7.90 4.5 835 0.00 0.00 0.00 0.00
05/28/20 2:50:30 PM 212 7.0 15.0 44 34 84.1 92.3 29.896 7.90 4.4 831 0.00 0.00 0.00 0.00
05/28/20 2:51:22 PM 224 6.0 15.0 44 34 84.1 92.1 29.898 7.90 4.3 824 0.00 0.00 0.00 0.00
05/28/20 2:52:36 PM 219 9.0 15.0 44 35 84.1 91.9 29.897 7.90 4.2 819 0.00 0.00 0.00 0.00
05/28/20 2:53:28 PM 209 7.0 15.0 44 35 84.1 91.8 29.896 7.90 4.2 814 0.00 0.00 0.00 0.00
05/28/20 2:54:20 PM 231 6.0 15.0 44 35 84.1 91.7 29.897 7.90 4.1 814 0.00 0.00 0.00 0.00
05/28/20 2:55:31 PM 246 3.0 15.0 44 35 84.1 91.6 29.895 7.90 4.1 816 0.00 0.00 0.00 0.00
05/28/20 2:56:23 PM 243 3.0 15.0 44 35 84.1 91.6 29.896 7.90 4.1 817 0.00 0.00 0.00 0.00
05/28/20 2:57:33 PM 259 3.0 15.0 44 35 84.1 91.6 29.898 7.90 4.0 817 0.00 0.00 0.00 0.00
05/28/20 2:58:29 PM 227 3.0 15.0 44 35 84.2 91.6 29.896 7.90 4.0 814 0.00 0.00 0.00 0.00
05/28/20 2:59:18 PM 240 4.0 15.0 44 36 84.2 91.8 29.896 7.90 3.9 809 0.00 0.00 0.00 0.00
05/28/20 3:00:31 PM 261 4.0 15.0 44 35 84.1 92.0 29.893 7.90 3.7 809 0.00 0.00 0.00 0.00
05/28/20 3:01:21 PM 290 3.0 15.0 44 35 84.2 92.0 29.895 7.90 3.7 807 0.00 0.00 0.00 0.00
05/28/20 3:02:31 PM 284 2.0 15.0 44 35 84.3 92.0 29.897 7.90 3.7 807 0.00 0.00 0.00 0.00
05/28/20 3:03:27 PM 284 2.0 15.0 44 35 84.3 92.0 29.897 7.90 3.7 807 0.00 0.00 0.00 0.00
05/28/20 3:04:16 PM 284 2.0 15.0 44 35 84.3 92.0 29.891 7.90 3.7 807 0.00 0.00 0.00 0.00
05/28/20 3:05:29 PM 284 2.0 15.0 44 35 84.3 92.0 29.892 7.90 3.7 807 0.00 0.00 0.00 0.00
05/28/20 3:07:44 PM 224 6.0 15.0 44 35 84.5 92.1 29.893 7.90 3.7 807 0.00 0.00 0.00 0.00
05/28/20 3:08:37 PM 242 6.0 15.0 44 35 84.5 92.1 29.890 7.90 3.2 789 0.00 0.00 0.00 0.00
05/28/20 3:09:29 PM 229 5.0 15.0 44 34 84.5 92.1 29.891 7.90 3.1 789 0.00 0.00 0.00 0.00
05/28/20 3:10:21 PM 252 5.0 15.0 44 34 84.5 92.1 29.892 7.90 3.1 789 0.00 0.00 0.00 0.00
05/28/20 3:11:32 PM 213 9.0 15.0 44 36 84.4 92.1 29.890 7.90 3.0 784 0.00 0.00 0.00 0.00
05/28/20 3:12:28 PM 219 5.0 15.0 44 34 84.5 92.2 29.889 7.90 2.9 780 0.00 0.00 0.00 0.00
05/28/20 3:13:35 PM 200 5.0 15.0 44 34 84.4 92.2 29.889 7.90 2.8 777 0.00 0.00 0.00 0.00
05/28/20 3:14:27 PM 226 9.0 15.0 44 34 84.4 92.1 29.890 7.90 2.8 773 0.00 0.00 0.00 0.00
05/28/20 3:15:19 PM 267 7.0 15.0 44 34 84.4 92.1 29.889 7.90 2.7 770 0.00 0.00 0.00 0.00
05/28/20 3:16:30 PM 162 6.0 15.0 44 35 84.4 92.1 29.888 7.90 2.6 772 0.00 0.00 0.00 0.00
05/28/20 3:17:22 PM 215 5.0 15.0 44 34 84.4 92.1 29.887 7.90 2.5 770 0.00 0.00 0.00 0.00
05/28/20 3:18:30 PM 246 7.0 15.0 44 34 84.4 92.0 29.888 7.90 2.5 770 0.00 0.00 0.00 0.00
05/28/20 3:19:22 PM 247 3.0 15.0 44 34 84.4 92.0 29.888 7.90 2.4 768 0.00 0.00 0.00 0.00
05/28/20 3:20:36 PM 229 9.0 15.0 44 34 84.5 92.0 29.888 7.90 2.4 765 0.00 0.00 0.00 0.00
05/28/20 3:21:29 PM 225 6.0 15.0 44 34 84.5 91.9 29.890 7.90 2.4 763 0.00 0.00 0.00 0.00
05/28/20 3:22:21 PM 221 7.0 15.0 44 34 84.4 91.9 29.886 7.90 2.3 761 0.00 0.00 0.00 0.00
05/28/20 3:23:28 PM 229 8.0 15.0 44 34 84.4 91.8 29.887 7.90 2.2 759 0.00 0.00 0.00 0.00
05/28/20 3:24:21 PM 248 9.0 15.0 44 33 84.4 91.8 29.887 7.90 2.2 754 0.00 0.00 0.00 0.00
05/28/20 3:25:35 PM 229 7.0 15.0 44 34 84.4 91.7 29.886 7.90 2.1 754 0.00 0.00 0.00 0.00
05/28/20 3:26:27 PM 225 8.0 15.0 44 34 84.5 91.7 29.888 7.90 2.1 754 0.00 0.00 0.00 0.00
05/28/20 3:27:20 PM 231 8.0 15.0 44 33 84.5 91.6 29.886 7.90 2.0 751 0.00 0.00 0.00 0.00
05/28/20 3:28:30 PM 242 4.0 15.0 44 34 84.5 91.5 29.886 7.90 2.0 747 0.00 0.00 0.00 0.00
05/28/20 3:29:19 PM 209 8.0 15.0 44 34 84.5 91.4 29.887 7.90 2.0 745 0.00 0.00 0.00 0.00
05/28/20 3:30:33 PM 195 8.0 15.0 44 35 84.5 91.3 29.885 7.90 1.9 740 0.00 0.00 0.00 0.00
05/28/20 3:31:25 PM 221 6.0 15.0 44 34 84.5 91.3 29.887 7.90 1.9 740 0.00 0.00 0.00 0.00
05/28/20 3:32:18 PM 227 7.0 15.0 44 35 84.5 91.3 29.886 7.90 1.9 737 0.00 0.00 0.00 0.00
05/28/20 3:33:28 PM 243 4.0 15.0 44 35 84.5 91.3 29.887 7.90 1.8 737 0.00 0.00 0.00 0.00
05/28/20 3:34:17 PM 223 4.0 15.0 44 34 84.5 91.3 29.886 7.90 1.8 733 0.00 0.00 0.00 0.00
05/28/20 3:35:31 PM 192 6.0 15.0 44 34 84.5 91.3 29.886 7.90 1.8 735 0.00 0.00 0.00 0.00
05/28/20 3:36:23 PM 217 7.0 15.0 44 35 84.5 91.2 29.887 7.90 1.7 731 0.00 0.00 0.00 0.00
05/28/20 3:37:37 PM 205 5.0 15.0 44 35 84.5 91.3 29.884 7.90 1.7 731 0.00 0.00 0.00 0.00
05/28/20 3:38:29 PM 225 8.0 15.0 44 36 84.6 91.3 29.888 7.90 1.7 726 0.00 0.00 0.00 0.00
05/28/20 3:39:22 PM 227 2.0 15.0 44 35 84.6 91.3 29.885 7.90 1.7 721 0.00 0.00 0.00 0.00
05/28/20 3:40:29 PM 172 6.0 15.0 44 36 84.6 91.3 29.884 7.90 1.7 719 0.00 0.00 0.00 0.00
05/28/20 3:41:21 PM 234 6.0 15.0 44 36 84.5 91.3 29.885 7.90 1.7 719 0.00 0.00 0.00 0.00
05/28/20 3:42:32 PM 225 11.0 15.0 44 35 84.6 91.3 29.884 7.90 1.7 714 0.00 0.00 0.00 0.00
05/28/20 3:43:24 PM 219 9.0 15.0 44 35 84.6 91.3 29.886 7.90 1.7 710 0.00 0.00 0.00 0.00
05/28/20 3:44:17 PM 242 6.0 15.0 44 36 84.6 91.1 29.883 7.90 1.7 710 0.00 0.00 0.00 0.00
05/28/20 3:45:27 PM 216 5.0 15.0 44 36 84.6 91.1 29.884 7.90 1.7 707 0.00 0.00 0.00 0.00
05/28/20 3:46:17 PM 236 2.0 15.0 44 36 84.6 91.1 29.884 7.90 1.7 703 0.00 0.00 0.00 0.00
05/28/20 3:47:30 PM 242 6.0 15.0 44 36 84.6 91.1 29.885 7.90 1.6 701 0.00 0.00 0.00 0.00
05/28/20 3:48:20 PM 290 7.0 15.0 44 36 84.6 91.1 29.884 7.90 1.6 700 0.00 0.00 0.00 0.00
05/28/20 3:49:33 PM 302 1.0 15.0 44 35 84.6 91.1 29.884 7.90 1.6 696 0.00 0.00 0.00 0.00
05/28/20 3:50:23 PM 248 3.0 15.0 44 35 84.7 91.1 29.883 7.90 1.6 694 0.00 0.00 0.00 0.00
05/28/20 3:51:33 PM 211 4.0 15.0 44 36 84.6 91.2 29.885 7.90 1.6 691 0.00 0.00 0.00 0.00
05/28/20 3:52:23 PM 232 5.0 15.0 44 36 84.6 91.2 29.883 7.90 1.6 689 0.00 0.00 0.00 0.00
05/28/20 3:53:33 PM 231 5.0 15.0 44 36 84.6 91.3 29.886 7.90 1.6 687 0.00 0.00 0.00 0.00
05/28/20 3:54:26 PM 239 9.0 15.0 44 36 84.7 91.4 29.883 7.90 1.6 682 0.00 0.00 0.00 0.00
05/28/20 3:55:18 PM 223 3.0 15.0 44 36 84.6 91.4 29.883 7.90 1.6 679 0.00 0.00 0.00 0.00
05/28/20 3:56:26 PM 212 5.0 15.0 44 36 84.7 91.4 29.884 7.90 1.5 677 0.00 0.00 0.00 0.00
05/28/20 3:57:15 PM 207 6.0 15.0 44 35 84.7 91.4 29.884 7.90 1.5 675 0.00 0.00 0.00 0.00
05/28/20 3:58:29 PM 223 14.0 15.0 44 35 84.6 91.4 29.882 7.90 1.5 671 0.00 0.00 0.00 0.00
05/28/20 3:59:21 PM 240 5.0 15.0 44 36 84.7 91.3 29.883 7.90 1.5 668 0.00 0.00 0.00 0.00
05/28/20 4:00:35 PM 236 3.0 15.0 44 35 84.8 91.1 29.883 7.90 1.5 666 0.00 0.00 0.00 0.00
05/28/20 4:01:21 PM 286 6.0 15.0 44 36 84.7 91.2 29.882 7.90 1.5 663 0.00 0.00 0.00 0.00
05/28/20 4:02:32 PM 250 7.0 15.0 44 36 84.8 91.2 29.881 7.90 1.4 661 0.00 0.00 0.00 0.00
05/28/20 4:03:24 PM 229 9.0 15.0 44 36 84.7 91.2 29.883 7.90 1.4 656 0.00 0.00 0.00 0.00
05/28/20 4:04:17 PM 205 4.0 15.0 44 36 84.7 91.2 29.883 7.90 1.4 654 0.00 0.00 0.00 0.00
05/28/20 4:05:31 PM 208 5.0 15.0 44 36 84.8 91.1 29.882 7.90 1.4 652 0.00 0.00 0.00 0.00
05/28/20 4:06:17 PM 258 2.0 15.0 44 36 84.8 91.1 29.881 7.90 1.4 649 0.00 0.00 0.00 0.00
05/28/20 4:07:28 PM 234 5.0 15.0 44 35 84.8 91.0 29.882 7.90 1.4 643 0.00 0.00 0.00 0.00
05/28/20 4:08:20 PM 262 6.0 15.0 44 35 84.8 90.9 29.883 7.90 1.3 642 0.00 0.00 0.00 0.00
05/28/20 4:09:31 PM 224 9.0 15.0 44 36 84.8 90.9 29.881 7.90 1.3 638 0.00 0.00 0.00 0.00
05/28/20 4:10:23 PM 259 7.0 15.0 44 36 84.8 90.8 29.882 7.90 1.3 638 0.00 0.00 0.00 0.00
05/28/20 4:11:31 PM 251 4.0 15.0 44 36 84.8 90.8 29.883 7.90 1.3 635 0.00 0.00 0.00 0.00
05/28/20 4:12:24 PM 194 7.0 15.0 44 36 84.8 90.7 29.880 7.90 1.3 633 0.00 0.00 0.00 0.00
05/28/20 4:13:34 PM 244 3.0 15.0 44 37 84.9 90.7 29.881 7.90 1.3 628 0.00 0.00 0.00 0.00
05/28/20 4:14:27 PM 237 9.0 15.0 44 37 84.8 90.7 29.880 7.90 1.3 624 0.00 0.00 0.00 0.00
05/28/20 4:15:38 PM 242 9.0 15.0 44 36 84.9 90.6 29.883 7.90 1.3 622 0.00 0.00 0.00 0.00
05/28/20 4:16:27 PM 242 5.0 15.0 44 36 84.9 90.5 29.882 7.90 1.3 621 0.00 0.00 0.00 0.00
05/28/20 4:17:32 PM 223 4.0 15.0 44 36 84.9 90.4 29.883 7.90 1.3 617 0.00 0.00 0.00 0.00
05/28/20 4:18:24 PM 257 5.0 15.0 44 36 84.9 90.4 29.881 7.90 1.2 615 0.00 0.00 0.00 0.00
05/28/20 4:19:35 PM 240 4.0 15.0 44 36 84.9 90.3 29.881 7.90 1.2 612 0.00 0.00 0.00 0.00
05/28/20 4:20:25 PM 238 6.0 15.0 44 36 84.9 90.3 29.882 7.90 1.2 610 0.00 0.00 0.00 0.00
05/28/20 4:21:17 PM 225 6.0 15.0 44 36 84.9 90.2 29.882 7.90 1.2 608 0.00 0.00 0.00 0.00
05/28/20 4:22:25 PM 225 4.0 15.0 44 36 84.9 90.1 29.881 7.90 1.2 608 0.00 0.00 0.00 0.00
05/28/20 4:23:17 PM 251 5.0 15.0 44 36 84.9 90.1 29.882 7.90 1.2 605 0.00 0.00 0.00 0.00
05/28/20 4:24:31 PM 221 3.0 15.0 44 36 84.9 90.1 29.881 7.90 1.2 599 0.00 0.00 0.00 0.00
05/28/20 4:25:20 PM 245 4.0 15.0 44 37 85.0 90.1 29.882 7.90 1.2 596 0.00 0.00 0.00 0.00
05/28/20 4:26:34 PM 262 6.0 15.0 44 37 85.0 90.1 29.883 7.90 1.2 589 0.00 0.00 0.00 0.00
05/28/20 4:27:20 PM 250 2.0 15.0 44 36 85.0 90.1 29.881 7.90 1.2 589 0.00 0.00 0.00 0.00
05/28/20 4:28:31 PM 320 5.0 15.0 44 36 85.0 90.1 29.882 7.90 1.2 584 0.00 0.00 0.00 0.00
05/28/20 4:29:24 PM 293 3.0 15.0 44 36 85.0 90.1 29.884 7.90 1.1 580 0.00 0.00 0.00 0.00
05/28/20 4:30:38 PM 227 12.0 15.0 44 36 85.0 90.1 29.882 7.90 1.1 578 0.00 0.00 0.00 0.00
05/28/20 4:31:24 PM 255 8.0 15.0 44 36 85.0 90.1 29.882 7.90 1.1 577 0.00 0.00 0.00 0.00
05/28/20 4:32:32 PM 247 4.0 15.0 44 36 85.0 90.0 29.881 7.90 1.1 575 0.00 0.00 0.00 0.00
05/28/20 4:33:21 PM 219 8.0 15.0 44 36 85.0 90.0 29.881 7.90 1.1 570 0.00 0.00 0.00 0.00
05/28/20 4:34:35 PM 231 7.0 15.0 44 36 85.0 89.9 29.883 7.90 1.1 570 0.00 0.00 0.00 0.00
05/28/20 4:35:27 PM 234 3.0 15.0 44 36 85.0 89.9 29.882 7.90 1.1 570 0.00 0.00 0.00 0.00
05/28/20 4:36:20 PM 277 6.0 15.0 44 36 85.0 89.8 29.883 7.90 1.1 563 0.00 0.00 0.00 0.00
05/28/20 4:37:30 PM 265 2.0 15.0 44 36 85.1 89.7 29.884 7.90 1.1 559 0.00 0.00 0.00 0.00
05/28/20 4:38:20 PM 249 3.0 15.0 44 36 85.1 89.7 29.882 7.90 1.1 554 0.00 0.00 0.00 0.00
05/28/20 4:39:30 PM 289 3.0 15.0 44 37 85.0 89.7 29.884 7.90 1.1 552 0.00 0.00 0.00 0.00
05/28/20 4:40:20 PM 261 3.0 15.0 44 37 85.1 89.7 29.881 7.90 1.1 550 0.00 0.00 0.00 0.00
05/28/20 4:41:31 PM 259 1.0 15.0 44 36 85.1 89.7 29.883 7.90 1.0 547 0.00 0.00 0.00 0.00
05/28/20 4:42:23 PM 259 0.0 15.0 44 36 85.1 89.7 29.884 7.90 1.0 545 0.00 0.00 0.00 0.00
05/28/20 4:43:31 PM 248 7.0 15.0 44 36 85.1 89.8 29.882 7.90 1.0 540 0.00 0.00 0.00 0.00
05/28/20 4:44:23 PM 224 7.0 15.0 44 37 85.1 89.9 29.881 7.90 1.0 534 0.00 0.00 0.00 0.00
05/28/20 4:45:34 PM 221 5.0 15.0 44 36 85.1 90.0 29.881 7.90 1.0 531 0.00 0.00 0.00 0.00
05/28/20 4:46:27 PM 227 6.0 15.0 44 36 85.1 90.0 29.881 7.90 1.0 529 0.00 0.00 0.00 0.00
05/28/20 4:47:16 PM 213 7.0 15.0 44 36 85.1 90.1 29.881 7.90 1.0 527 0.00 0.00 0.00 0.00
05/28/20 4:48:24 PM 217 9.0 15.0 44 36 85.1 90.1 29.881 7.90 1.0 524 0.00 0.00 0.00 0.00
05/28/20 4:49:17 PM 238 3.0 15.0 44 36 85.1 90.1 29.879 7.90 1.0 522 0.00 0.00 0.00 0.00
05/28/20 4:50:27 PM 229 7.0 15.0 44 37 85.1 90.1 29.879 7.90 1.0 517 0.00 0.00 0.00 0.00
05/28/20 4:51:20 PM 234 6.0 15.0 44 37 85.1 90.1 29.882 7.90 1.0 515 0.00 0.00 0.00 0.00
05/28/20 4:52:31 PM 244 4.0 15.0 44 36 85.1 90.1 29.880 7.90 1.0 513 0.00 0.00 0.00 0.00
05/28/20 4:53:21 PM 270 2.0 15.0 44 37 85.1 90.1 29.879 7.90 1.0 510 0.00 0.00 0.00 0.00
05/28/20 4:54:28 PM 239 4.0 15.0 44 36 85.2 90.1 29.880 7.90 1.0 504 0.00 0.00 0.00 0.00
05/28/20 4:55:21 PM 267 6.0 15.0 44 36 85.1 90.0 29.880 7.90 0.9 503 0.00 0.00 0.00 0.00
05/28/20 4:56:35 PM 217 6.0 15.0 44 36 85.1 90.0 29.879 7.90 0.9 496 0.00 0.00 0.00 0.00
05/28/20 4:57:24 PM 221 8.0 15.0 44 36 85.2 90.0 29.878 7.90 0.9 496 0.00 0.00 0.00 0.00
05/28/20 4:58:35 PM 244 4.0 15.0 44 36 85.2 89.9 29.879 7.90 0.9 489 0.00 0.00 0.00 0.00
05/28/20 4:59:24 PM 256 2.0 15.0 44 37 85.2 89.9 29.877 7.90 0.9 485 0.00 0.00 0.00 0.00
05/28/20 5:00:35 PM 273 9.0 15.0 44 37 85.1 89.9 29.876 7.90 0.9 482 0.00 0.00 0.00 0.00
05/28/20 5:01:27 PM 203 6.0 15.0 44 36 85.2 89.8 29.878 7.90 0.9 480 0.00 0.00 0.00 0.00
05/28/20 5:02:20 PM 232 4.0 15.0 44 36 85.2 89.8 29.877 7.90 0.9 478 0.00 0.00 0.00 0.00
05/28/20 5:03:31 PM 238 4.0 15.0 44 37 85.2 89.8 29.878 7.90 0.9 475 0.00 0.00 0.00 0.00
05/28/20 5:04:17 PM 273 2.0 15.0 44 37 85.2 89.7 29.876 7.90 0.9 471 0.00 0.00 0.00 0.00
05/28/20 5:05:31 PM 270 8.0 15.0 44 37 85.2 89.7 29.879 7.90 0.9 469 0.00 0.00 0.00 0.00
05/28/20 5:06:24 PM 216 6.0 15.0 44 37 85.3 89.7 29.877 7.90 0.9 466 0.00 0.00 0.00 0.00
05/28/20 5:07:35 PM 225 4.0 15.0 44 36 85.3 89.6 29.878 7.90 0.9 461 0.00 0.00 0.00 0.00
05/28/20 5:08:24 PM 238 5.0 15.0 44 37 85.3 89.6 29.878 7.90 0.9 459 0.00 0.00 0.00 0.00
05/28/20 5:09:32 PM 231 4.0 15.0 44 36 85.3 89.5 29.877 7.90 0.9 454 0.00 0.00 0.00 0.00
05/28/20 5:10:21 PM 246 3.0 15.0 44 36 85.2 89.5 29.877 7.90 0.8 452 0.00 0.00 0.00 0.00
05/28/20 5:11:35 PM 238 5.0 15.0 44 37 85.3 89.5 29.877 7.90 0.8 446 0.00 0.00 0.00 0.00
05/28/20 5:12:27 PM 218 5.0 15.0 44 37 85.3 89.5 29.877 7.90 0.8 445 0.00 0.00 0.00 0.00
05/28/20 5:13:17 PM 234 2.0 15.0 44 37 85.3 89.4 29.877 7.90 0.8 445 0.00 0.00 0.00 0.00
05/28/20 5:14:31 PM 211 2.0 15.0 44 37 85.3 89.4 29.876 7.90 0.8 436 0.00 0.00 0.00 0.00
05/28/20 5:15:20 PM 204 4.0 15.0 44 37 85.3 89.4 29.876 7.90 0.8 432 0.00 0.00 0.00 0.00
05/28/20 5:16:31 PM 246 3.0 15.0 44 38 85.3 89.4 29.876 7.90 0.8 431 0.00 0.00 0.00 0.00
05/28/20 5:17:24 PM 222 6.0 15.0 44 38 85.4 89.4 29.876 7.90 0.8 427 0.00 0.00 0.00 0.00
05/28/20 5:18:34 PM 239 2.0 15.0 44 37 85.3 89.4 29.875 7.90 0.8 425 0.00 0.00 0.00 0.00
05/28/20 5:19:27 PM 228 3.0 15.0 44 37 85.3 89.4 29.875 7.90 0.8 422 0.00 0.00 0.00 0.00
05/28/20 5:20:35 PM 230 3.0 15.0 44 37 85.3 89.4 29.875 7.90 0.7 420 0.00 0.00 0.00 0.00
05/28/20 5:21:24 PM 251 4.0 15.0 44 37 85.3 89.5 29.876 7.90 0.7 415 0.00 0.00 0.00 0.00
05/28/20 5:22:17 PM 251 7.0 15.0 44 37 85.3 89.5 29.876 7.90 0.7 413 0.00 0.00 0.00 0.00
05/28/20 5:23:27 PM 242 3.0 15.0 44 37 85.4 89.5 29.879 7.90 0.7 413 0.00 0.00 0.00 0.00
05/28/20 5:24:20 PM 232 2.0 15.0 44 37 85.4 89.5 29.873 7.90 0.7 406 0.00 0.00 0.00 0.00
05/28/20 5:25:28 PM 208 3.0 15.0 44 37 85.4 89.5 29.877 7.90 0.7 403 0.00 0.00 0.00 0.00
05/28/20 5:26:18 PM 221 1.0 15.0 44 36 85.4 89.4 29.876 7.90 0.7 397 0.00 0.00 0.00 0.00
05/28/20 5:27:29 PM 236 1.0 15.0 44 37 85.4 89.4 29.876 7.90 0.7 392 0.00 0.00 0.00 0.00
05/28/20 5:28:21 PM 236 0.0 15.0 44 37 85.4 89.5 29.876 7.90 0.7 392 0.00 0.00 0.00 0.00
05/28/20 5:29:32 PM 236 2.0 15.0 44 37 85.4 89.5 29.877 7.90 0.7 388 0.00 0.00 0.00 0.00
05/28/20 5:30:24 PM 267 1.0 15.0 44 37 85.4 89.5 29.876 7.90 0.7 387 0.00 0.00 0.00 0.00
05/28/20 5:31:29 PM 250 5.0 15.0 44 37 85.4 89.6 29.878 7.90 0.6 383 0.00 0.00 0.00 0.00
05/28/20 5:32:22 PM 234 4.0 15.0 44 36 85.4 89.6 29.877 7.90 0.6 380 0.00 0.00 0.00 0.00
05/28/20 5:33:32 PM 227 1.0 15.0 44 37 85.4 89.7 29.877 7.90 0.6 376 0.00 0.00 0.00 0.00
05/28/20 5:34:22 PM 227 1.0 15.0 44 37 85.5 89.7 29.878 7.90 0.6 374 0.00 0.00 0.00 0.00
05/28/20 5:35:33 PM 223 4.0 15.0 44 37 85.4 89.8 29.875 7.90 0.6 371 0.00 0.00 0.00 0.00
05/28/20 5:36:23 PM 263 4.0 15.0 44 37 85.5 89.8 29.877 7.90 0.6 369 0.00 0.00 0.00 0.00
05/28/20 5:37:33 PM 275 2.0 15.0 44 37 85.5 89.8 29.877 7.90 0.6 364 0.00 0.00 0.00 0.00
05/28/20 5:38:23 PM 263 1.0 15.0 44 37 85.5 89.8 29.875 7.90 0.6 360 0.00 0.00 0.00 0.00
05/28/20 5:39:16 PM 255 0.0 15.0 44 37 85.5 89.8 29.875 7.90 0.6 357 0.00 0.00 0.00 0.00
05/28/20 5:40:30 PM 285 3.0 15.0 44 37 85.5 89.9 29.876 7.90 0.6 353 0.00 0.00 0.00 0.00
05/28/20 5:41:16 PM 291 2.0 15.0 44 36 85.5 89.9 29.874 7.90 0.6 350 0.00 0.00 0.00 0.00
05/28/20 5:42:27 PM 267 6.0 15.0 44 37 85.5 89.9 29.877 7.90 0.5 345 0.00 0.00 0.00 0.00
05/28/20 5:43:23 PM 262 3.0 15.0 44 36 85.5 89.9 29.874 7.90 0.5 345 0.00 0.00 0.00 0.00
05/28/20 5:44:34 PM 208 5.0 15.0 44 36 85.5 89.9 29.874 7.90 0.5 336 0.00 0.00 0.00 0.00
05/28/20 5:45:26 PM 238 4.0 15.0 44 37 85.5 89.8 29.874 7.90 0.5 332 0.00 0.00 0.00 0.00
05/28/20 5:46:19 PM 236 2.0 15.0 44 36 85.5 89.8 29.873 7.90 0.5 330 0.00 0.00 0.00 0.00
05/28/20 5:47:26 PM 228 5.0 15.0 44 36 85.6 89.7 29.874 7.90 0.5 327 0.00 0.00 0.00 0.00
05/28/20 5:48:16 PM 216 5.0 15.0 44 36 85.5 89.7 29.873 7.90 0.5 325 0.00 0.00 0.00 0.00
05/28/20 5:49:27 PM 211 4.0 15.0 44 37 85.6 89.7 29.874 7.90 0.5 322 0.00 0.00 0.00 0.00
05/28/20 5:50:23 PM 215 7.0 15.0 44 37 85.6 89.6 29.875 7.90 0.5 318 0.00 0.00 0.00 0.00
05/28/20 5:51:33 PM 203 7.0 15.0 44 37 85.6 89.5 29.873 7.90 0.5 318 0.00 0.00 0.00 0.00
05/28/20 5:52:20 PM 219 6.0 15.0 44 37 85.6 89.4 29.875 7.90 0.5 318 0.00 0.00 0.00 0.00
05/28/20 5:53:31 PM 247 7.0 15.0 44 36 85.6 89.3 29.877 7.90 0.5 308 0.00 0.00 0.00 0.00
05/28/20 5:54:27 PM 223 4.0 15.0 44 37 85.6 89.2 29.875 7.90 0.0 304 0.00 0.00 0.00 0.00
05/28/20 5:55:34 PM 221 6.0 15.0 44 37 85.6 89.1 29.873 7.90 0.0 299 0.00 0.00 0.00 0.00
05/28/20 5:56:27 PM 207 6.0 15.0 44 37 85.6 89.0 29.876 7.90 0.0 299 0.00 0.00 0.00 0.00
05/28/20 5:57:35 PM 201 6.0 15.0 44 37 85.6 88.9 29.874 7.90 0.0 294 0.00 0.00 0.00 0.00
05/28/20 5:58:27 PM 217 9.0 15.0 44 37 85.6 88.8 29.874 7.90 0.0 288 0.00 0.00 0.00 0.00
05/28/20 5:59:20 PM 215 7.0 15.0 44 37 85.6 88.7 29.873 7.90 0.0 288 0.00 0.00 0.00 0.00
05/28/20 6:00:31 PM 220 6.0 15.0 44 37 85.6 88.6 29.875 7.90 0.0 283 0.00 0.00 0.00 0.00
05/28/20 6:01:24 PM 214 4.0 15.0 44 38 85.6 88.4 29.875 7.90 0.0 278 0.00 0.00 0.00 0.00
05/28/20 6:02:17 PM 237 5.0 15.0 44 38 85.6 88.4 29.876 7.90 0.0 276 0.00 0.00 0.00 0.00
05/28/20 6:03:25 PM 251 8.0 15.0 44 38 85.6 88.3 29.874 7.90 0.0 272 0.00 0.00 0.00 0.00
05/28/20 6:04:17 PM 227 5.0 15.0 44 38 85.6 88.2 29.874 7.90 0.0 269 0.00 0.00 0.00 0.00
05/28/20 6:05:28 PM 225 6.0 15.0 44 38 85.6 88.1 29.875 7.90 0.0 267 0.00 0.00 0.00 0.00

University Police wind advisory reference

For campus closure information please call the campus Emergency Hotline at (909) 537-5999

© All rights reserved. Unauthorized duplication or distribution is prohibited

Never base important decisions on this or any weather information obtained from the Internet

California State University, San Bernardino
5500 University Parkway, San Bernardino, CA. 92407
Phone: (909) 537-5108, Email: Weather Webmaster
Last Updated: